GREAT EAST LAKE DAM: From 01/23/2019 00:00 to 03/26/2019 00:00

Date LAKE ELEVATION [FT] PRECIPITATION INCREMENT [IN] PRECIPITATION TOTAL [IN] AIR TEMPERATURE [F] RELATIVE HUMIDITY [%]
03/24/2019 04:00 572.30 0.00 -- 29.2 100.0
03/24/2019 03:00 572.30 0.00 -- 29.3 100.0
03/24/2019 02:00 572.27 0.00 -- 29.5 100.0
03/24/2019 01:00 572.30 0.00 -- 30.2 100.0
03/24/2019 00:00 572.30 0.00 -- 29.9 100.0
03/23/2019 23:00 572.30 0.00 -- 29.8 100.0
03/23/2019 22:00 572.30 0.00 -- 29.7 100.0
03/23/2019 21:00 572.30 0.00 -- 30.0 100.0
03/23/2019 20:00 572.28 0.00 -- 30.9 100.0
03/23/2019 19:00 572.25 0.00 -- 32.3 100.0
03/23/2019 18:00 572.29 0.00 -- 34.1 100.0
03/23/2019 17:00 572.28 0.00 -- 34.9 100.0
03/23/2019 16:00 572.28 0.00 -- 34.7 100.0
03/23/2019 15:00 572.30 0.00 -- 34.8 100.0
03/23/2019 14:00 572.23 0.00 -- 34.8 100.0
03/23/2019 13:00 572.27 0.00 -- 34.7 100.0
03/23/2019 12:00 572.28 0.00 -- 34.4 100.0
03/23/2019 11:00 572.26 0.00 -- 33.4 100.0
03/23/2019 10:00 572.26 0.00 -- 34.2 100.0
03/23/2019 09:00 572.27 0.00 -- 32.4 100.0
03/23/2019 08:00 572.27 0.00 -- 33.8 96.0
03/23/2019 07:00 572.25 0.00 -- 34.7 59.0
03/23/2019 06:00 572.26 0.00 -- 34.3 31.0
03/23/2019 05:00 572.25 0.00 -- 33.4 30.0
03/23/2019 04:00 572.27 0.00 -- 33.1 29.0
03/23/2019 03:00 572.25 0.00 -- 33.9 32.0
03/23/2019 02:00 572.25 0.00 -- 34.2 35.0
03/23/2019 01:00 572.26 0.00 -- 34.2 40.0
03/23/2019 00:00 572.25 0.00 0.00 34.8 41.0
03/22/2019 23:00 572.23 0.00 -- 34.5 40.0
03/22/2019 22:00 572.25 0.00 -- 34.2 35.0
03/22/2019 21:00 572.24 0.02 -- 33.8 32.0
03/22/2019 20:00 572.24 0.02 -- 33.3 31.0
03/22/2019 19:00 572.24 0.03 -- 33.5 30.0
03/22/2019 18:00 572.23 0.09 -- 35.0 30.0
03/22/2019 17:00 572.22 0.18 -- 35.9 30.0
03/22/2019 16:00 572.22 0.18 -- 34.9 28.0
03/22/2019 15:00 572.22 0.00 -- 33.7 28.0
03/22/2019 14:00 572.21 0.00 -- 33.0 30.0
03/22/2019 13:00 572.20 0.00 -- 32.9 32.0
03/22/2019 12:00 572.21 0.00 -- 32.4 36.0
03/22/2019 11:00 572.16 0.00 -- 32.2 43.0
03/22/2019 10:00 572.16 0.00 -- 31.9 44.0
03/22/2019 09:00 572.15 0.00 -- 31.6 79.0
03/22/2019 08:00 572.15 0.00 -- 32.0 100.0
03/22/2019 07:00 572.15 0.00 -- 32.5 100.0
03/22/2019 06:00 572.15 0.00 -- 33.3 100.0
03/22/2019 05:00 572.16 0.00 -- 33.7 100.0
03/22/2019 04:00 572.13 0.00 -- 33.7 100.0
03/22/2019 03:00 572.13 0.00 -- 33.9 100.0
03/22/2019 02:00 572.14 0.00 -- 33.8 100.0
03/22/2019 01:00 572.13 0.00 -- 34.2 100.0
03/22/2019 00:00 572.11 0.00 0.52 34.3 100.0
03/21/2019 23:00 572.14 0.00 -- 34.4 100.0
03/21/2019 22:00 572.14 0.00 -- 34.5 100.0
03/21/2019 21:00 572.14 0.00 -- 35.6 100.0
03/21/2019 20:00 572.13 0.00 -- 38.1 100.0
03/21/2019 19:00 572.13 0.00 -- 38.8 100.0
03/21/2019 18:00 572.13 0.00 -- 40.6 100.0
03/21/2019 17:00 572.12 0.00 -- 42.4 100.0
03/21/2019 16:00 572.13 0.00 -- 42.9 100.0
03/21/2019 15:00 572.13 0.00 -- 43.1 100.0
03/21/2019 14:00 572.11 0.00 -- 46.2 100.0
03/21/2019 13:00 572.12 0.00 -- 46.4 100.0
03/21/2019 12:00 572.12 0.00 -- 44.9 100.0
03/21/2019 11:00 572.12 0.00 -- 43.5 100.0
03/21/2019 10:00 572.12 0.00 -- 40.9 100.0
03/21/2019 09:00 572.13 0.00 -- 33.9 100.0
03/21/2019 08:00 572.11 0.00 -- 30.1 100.0
03/21/2019 07:00 572.12 0.00 -- 28.2 100.0
03/21/2019 06:00 572.11 0.00 -- 29.3 100.0
03/21/2019 05:00 572.12 0.00 -- 33.5 100.0
03/21/2019 04:00 572.11 0.00 -- 34.1 100.0
03/21/2019 03:00 572.11 0.00 -- 31.7 100.0
03/21/2019 02:00 572.10 0.00 -- 33.5 100.0
03/21/2019 01:00 572.11 0.00 -- 35.9 100.0
03/21/2019 00:00 572.11 0.00 0.00 28.7 100.0
03/20/2019 23:00 572.12 0.00 -- 30.3 100.0
03/20/2019 22:00 572.12 0.00 -- 31.0 100.0
03/20/2019 21:00 572.10 0.00 -- 31.4 100.0
03/20/2019 20:00 572.11 0.00 -- 35.4 100.0
03/20/2019 19:00 572.11 0.00 -- 38.0 100.0
03/20/2019 18:00 572.12 0.00 -- 41.7 100.0
03/20/2019 17:00 572.10 0.00 -- 46.1 100.0
03/20/2019 16:00 572.10 0.00 -- 46.1 100.0
03/20/2019 15:00 572.10 0.00 -- 44.2 100.0
03/20/2019 14:00 572.11 0.00 -- 42.7 100.0
03/20/2019 13:00 572.10 0.00 -- 42.9 100.0
03/20/2019 12:00 572.10 0.00 -- 39.5 100.0
03/20/2019 11:00 572.11 0.00 -- 38.0 100.0
03/20/2019 10:00 572.10 0.00 -- 30.7 100.0
03/20/2019 09:00 572.11 0.00 -- 19.0 100.0
03/20/2019 08:00 572.09 0.00 -- 15.2 100.0
03/20/2019 07:00 572.10 0.00 -- 13.2 100.0
03/20/2019 06:00 572.10 0.00 -- 13.7 100.0
03/20/2019 05:00 572.10 0.00 -- 14.7 100.0
03/20/2019 04:00 572.10 0.00 -- 16.2 100.0
03/20/2019 03:00 572.10 0.00 -- 17.7 100.0
03/20/2019 02:00 572.10 0.00 -- 19.2 100.0
03/20/2019 01:00 572.10 0.00 -- 20.7 100.0
03/20/2019 00:00 572.09 0.00 0.00 22.2 100.0
03/19/2019 23:00 572.09 0.00 -- 23.7 100.0
03/19/2019 22:00 572.09 0.00 -- 25.2 100.0
03/19/2019 21:00 572.09 0.00 -- 26.7 100.0
03/19/2019 20:00 572.09 0.00 -- 28.2 100.0
03/19/2019 19:00 572.10 0.00 -- 32.2 100.0
03/19/2019 18:00 572.09 0.00 -- 34.4 100.0
03/19/2019 17:00 572.08 0.00 -- 35.8 100.0
03/19/2019 16:00 572.11 0.00 -- 35.1 100.0
03/19/2019 15:00 572.11 0.00 -- 35.4 100.0
03/19/2019 14:00 572.07 0.00 -- 34.7 100.0
03/19/2019 13:00 572.12 0.00 -- 33.7 100.0
03/19/2019 12:00 572.09 0.00 -- 33.1 100.0
03/19/2019 11:00 572.08 0.00 -- 31.8 100.0
03/19/2019 10:00 572.09 0.00 -- 28.4 100.0
03/19/2019 09:00 572.09 0.00 -- 24.2 100.0
03/19/2019 08:00 572.08 0.00 -- 20.8 100.0
03/19/2019 07:00 572.08 0.00 -- 17.8 100.0
03/19/2019 06:00 572.08 0.00 -- 17.0 100.0
03/19/2019 05:00 572.06 0.00 -- 17.0 100.0
03/19/2019 04:00 572.08 0.00 -- 17.8 100.0
03/19/2019 03:00 572.08 0.00 -- 18.2 100.0
03/19/2019 02:00 572.08 0.00 -- 19.6 100.0
03/19/2019 01:00 572.07 0.00 -- 21.4 100.0
03/19/2019 00:00 572.08 0.00 0.00 21.9 100.0
03/18/2019 23:00 572.07 0.00 -- 21.8 100.0
03/18/2019 22:00 572.07 0.00 -- 23.4 100.0
03/18/2019 21:00 572.08 0.00 -- 25.2 100.0
03/18/2019 20:00 572.07 0.00 -- 26.8 100.0
03/18/2019 19:00 572.06 0.00 -- 30.2 100.0
03/18/2019 18:00 572.09 0.00 -- 32.6 100.0
03/18/2019 17:00 572.05 0.00 -- 32.9 100.0
03/18/2019 16:00 572.08 0.00 -- 32.5 100.0
03/18/2019 15:00 572.08 0.00 -- 32.4 100.0
03/18/2019 14:00 572.11 0.00 -- 31.5 100.0
03/18/2019 13:00 572.01 0.00 -- 29.4 100.0
03/18/2019 12:00 572.09 0.00 -- 28.4 100.0
03/18/2019 11:00 572.06 0.00 -- 26.3 100.0
03/18/2019 10:00 572.08 0.00 -- 24.7 100.0
03/18/2019 09:00 572.06 0.00 -- 23.1 100.0
03/18/2019 08:00 572.06 0.00 -- 20.0 100.0
03/18/2019 07:00 572.06 0.00 -- 17.8 100.0
03/18/2019 06:00 572.05 0.00 -- 17.7 100.0
03/18/2019 05:00 572.08 0.00 -- 19.0 100.0
03/18/2019 04:00 572.06 0.00 -- 18.5 100.0
03/18/2019 03:00 572.05 0.00 -- 18.1 100.0
03/18/2019 02:00 572.05 0.00 -- 19.5 100.0
03/18/2019 01:00 572.06 0.00 -- 21.3 100.0
03/18/2019 00:00 572.05 0.00 0.00 23.5 100.0
03/17/2019 23:00 572.05 0.00 -- 24.2 100.0
03/17/2019 22:00 572.05 0.00 -- 22.8 100.0
03/17/2019 21:00 572.04 0.00 -- 24.2 100.0
03/17/2019 20:00 572.05 0.00 -- 26.1 100.0
03/17/2019 19:00 572.05 0.00 -- 28.4 100.0
03/17/2019 18:00 572.06 0.00 -- 29.1 100.0
03/17/2019 17:00 572.05 0.00 -- 29.9 100.0
03/17/2019 16:00 572.03 0.00 -- 30.1 100.0
03/17/2019 15:00 572.03 0.00 -- 30.0 100.0
03/17/2019 14:00 572.04 0.00 -- 29.0 100.0
03/17/2019 13:00 572.00 0.00 -- 28.2 100.0
03/17/2019 12:00 572.03 0.00 -- 27.8 100.0
03/17/2019 11:00 572.02 0.00 -- 27.0 100.0
03/17/2019 10:00 572.05 0.00 -- 26.0 100.0
03/17/2019 09:00 572.05 0.00 -- 24.7 100.0
03/17/2019 08:00 572.03 0.00 -- 24.2 100.0
03/17/2019 07:00 572.03 0.00 -- 24.3 100.0
03/17/2019 06:00 572.01 0.00 -- 25.5 100.0
03/17/2019 05:00 572.03 0.00 -- 25.9 100.0
03/17/2019 04:00 572.02 0.00 -- 28.2 100.0
03/17/2019 03:00 572.01 0.00 -- 28.8 100.0
03/17/2019 02:00 572.02 0.00 -- 28.9 100.0
03/17/2019 01:00 572.01 0.00 -- 28.8 100.0
03/17/2019 00:00 572.02 0.00 0.00 29.3 100.0
03/16/2019 23:00 572.02 0.00 -- 30.4 100.0
03/16/2019 22:00 572.01 0.00 -- 30.6 100.0
03/16/2019 21:00 572.01 0.00 -- 31.6 100.0
03/16/2019 20:00 572.01 0.00 -- 33.1 100.0
03/16/2019 19:00 572.01 0.00 -- 34.3 100.0
03/16/2019 18:00 572.00 0.00 -- 35.6 100.0
03/16/2019 17:00 572.01 0.00 -- 37.3 100.0
03/16/2019 16:00 571.98 0.00 -- 38.2 100.0
03/16/2019 15:00 572.01 0.00 -- 39.7 100.0
03/16/2019 14:00 572.02 0.00 -- 40.8 100.0
03/16/2019 13:00 571.97 0.00 -- 40.7 100.0
03/16/2019 12:00 571.99 0.00 -- 40.4 100.0
03/16/2019 11:00 571.99 0.00 -- 42.2 100.0
03/16/2019 10:00 571.99 0.00 -- 42.6 100.0
03/16/2019 09:00 572.00 0.00 -- 42.0 100.0
03/16/2019 08:00 572.00 0.00 -- 39.3 100.0
03/16/2019 07:00 571.99 0.00 -- 39.7 100.0
03/16/2019 06:00 571.97 0.00 -- 40.4 100.0
03/16/2019 05:00 571.99 0.00 -- 38.4 100.0
03/16/2019 04:00 571.98 0.00 -- 36.9 94.0
03/16/2019 03:00 571.97 0.00 -- 37.2 87.0
03/16/2019 02:00 571.96 0.00 -- 39.8 81.0
03/16/2019 01:00 571.97 0.00 -- 39.7 85.0
03/16/2019 00:00 571.97 0.00 0.00 36.3 76.0
03/15/2019 23:00 571.98 0.00 -- 35.3 62.0
03/15/2019 22:00 571.99 0.00 -- 35.7 49.0
03/15/2019 21:00 571.97 0.00 -- 37.2 41.0
03/15/2019 20:00 571.94 0.00 -- 40.1 36.0
03/15/2019 19:00 571.96 0.00 -- 47.1 31.0
03/15/2019 18:00 571.94 0.00 -- 56.8 29.0
03/15/2019 17:00 571.97 0.00 -- 59.5 29.0
03/15/2019 16:00 571.97 0.00 -- 59.6 30.0
03/15/2019 15:00 571.95 0.00 -- 56.6 54.0
03/15/2019 14:00 571.96 0.00 -- 47.6 100.0
03/15/2019 13:00 571.96 0.00 -- 43.8 100.0
03/15/2019 12:00 571.93 0.00 -- 44.6 100.0
03/15/2019 11:00 571.92 0.00 -- 44.3 100.0
03/15/2019 10:00 571.97 0.03 -- 41.3 100.0
03/15/2019 09:00 571.91 0.14 -- 35.4 100.0
03/15/2019 08:00 571.96 0.00 -- 34.9 100.0
03/15/2019 07:00 571.92 0.00 -- 35.1 100.0
03/15/2019 06:00 571.93 0.00 -- 35.8 100.0
03/15/2019 05:00 571.93 0.00 -- 35.2 100.0
03/15/2019 04:00 571.94 0.00 -- 35.6 100.0
03/15/2019 03:00 571.93 0.00 -- 34.6 100.0
03/15/2019 02:00 571.93 0.00 -- 32.7 100.0
03/15/2019 01:00 571.91 0.00 -- 32.1 100.0
03/15/2019 00:00 571.93 0.00 0.17 31.4 100.0
03/14/2019 23:00 571.93 0.00 -- 31.5 100.0
03/14/2019 22:00 571.92 0.00 -- 32.5 100.0
03/14/2019 21:00 571.92 0.00 -- 33.9 100.0
03/14/2019 20:00 571.93 0.00 -- 35.4 100.0
03/14/2019 19:00 571.91 0.00 -- 36.6 100.0
03/14/2019 18:00 571.92 0.00 -- 38.6 100.0
03/14/2019 17:00 571.92 0.00 -- 40.9 100.0
03/14/2019 16:00 571.93 0.00 -- 44.4 100.0
03/14/2019 15:00 571.93 0.00 -- 44.9 100.0
03/14/2019 14:00 571.90 0.00 -- 44.0 100.0
03/14/2019 13:00 571.95 0.00 -- 40.9 100.0
03/14/2019 12:00 571.92 0.00 -- 38.9 100.0
03/14/2019 11:00 571.95 0.00 -- 35.3 100.0
03/14/2019 10:00 571.94 0.03 -- 34.0 100.0
03/14/2019 09:00 571.92 0.00 -- 32.6 100.0
03/14/2019 08:00 571.91 0.00 -- 30.5 100.0
03/14/2019 07:00 571.88 0.00 -- 29.1 100.0
03/14/2019 06:00 571.91 0.00 -- 30.0 100.0
03/14/2019 05:00 571.93 0.00 -- 30.3 100.0
03/14/2019 04:00 571.91 0.00 -- 30.6 100.0
03/14/2019 03:00 571.91 0.00 -- 31.0 100.0
03/14/2019 02:00 571.91 0.00 -- 31.1 100.0
03/14/2019 01:00 571.93 0.00 -- 31.4 100.0
03/14/2019 00:00 571.91 0.00 0.03 31.4 100.0
03/13/2019 23:00 571.92 0.00 -- 31.7 100.0
03/13/2019 22:00 571.91 0.00 -- 33.7 100.0
03/13/2019 21:00 571.91 0.00 -- 34.0 100.0
03/13/2019 20:00 571.89 0.00 -- 34.2 100.0
03/13/2019 19:00 571.91 0.00 -- 34.6 100.0
03/13/2019 18:00 571.92 0.00 -- 36.7 100.0
03/13/2019 17:00 571.89 0.00 -- 38.5 100.0
03/13/2019 16:00 571.90 0.00 -- 39.3 100.0
03/13/2019 15:00 571.89 0.00 -- 39.8 100.0
03/13/2019 14:00 571.89 0.00 -- 39.7 100.0
03/13/2019 13:00 571.89 0.00 -- 39.6 100.0
03/13/2019 12:00 571.92 0.00 -- 39.2 100.0
03/13/2019 11:00 571.90 0.00 -- 35.1 100.0
03/13/2019 10:00 571.90 0.00 -- 24.5 100.0
03/13/2019 09:00 571.92 0.00 -- 15.1 100.0
03/13/2019 08:00 571.90 0.00 -- 13.9 100.0
03/13/2019 07:00 571.89 0.00 -- 12.9 100.0
03/13/2019 06:00 571.91 0.00 -- 14.7 100.0
03/13/2019 05:00 571.89 0.00 -- 15.4 100.0
03/13/2019 04:00 571.88 0.00 -- 16.6 100.0
03/13/2019 03:00 571.90 0.00 -- 18.9 100.0
03/13/2019 02:00 571.89 0.00 -- 20.4 100.0
03/13/2019 01:00 571.88 0.00 -- 21.7 100.0
03/13/2019 00:00 571.90 0.00 0.00 25.0 100.0
03/12/2019 23:00 571.87 0.00 -- 25.3 100.0
03/12/2019 22:00 571.90 0.00 -- 27.1 100.0
03/12/2019 21:00 571.90 0.00 -- 27.4 100.0
03/12/2019 20:00 571.90 0.00 -- 30.9 100.0
03/12/2019 19:00 571.90 0.00 -- 31.6 100.0
03/12/2019 18:00 571.89 0.00 -- 34.1 100.0
03/12/2019 17:00 571.88 0.00 -- 35.3 100.0
03/12/2019 16:00 571.88 0.00 -- 35.9 100.0
03/12/2019 15:00 571.86 0.00 -- 35.9 100.0
03/12/2019 14:00 571.88 0.00 -- 35.9 100.0
03/12/2019 13:00 571.89 0.01 -- 34.3 100.0
03/12/2019 12:00 571.89 0.00 -- 33.5 100.0
03/12/2019 11:00 571.85 0.00 -- 31.8 100.0
03/12/2019 10:00 571.92 0.00 -- 30.6 100.0
03/12/2019 09:00 571.89 0.00 -- 28.8 100.0
03/12/2019 08:00 571.88 0.00 -- 28.3 100.0
03/12/2019 07:00 571.89 0.00 -- 27.9 100.0
03/12/2019 06:00 571.90 0.00 -- 28.3 100.0
03/12/2019 05:00 571.90 0.00 -- 28.9 100.0
03/12/2019 04:00 571.88 0.00 -- 29.8 100.0
03/12/2019 03:00 571.92 0.00 -- 30.9 100.0
03/12/2019 02:00 571.89 0.00 -- 31.5 100.0
03/12/2019 01:00 571.88 0.00 -- 32.3 100.0
03/12/2019 00:00 571.88 0.00 0.01 32.4 100.0
03/11/2019 23:00 571.87 0.01 -- 32.6 100.0
03/11/2019 22:00 571.89 0.00 -- 33.3 100.0
03/11/2019 21:00 571.87 0.00 -- 34.5 100.0
03/11/2019 20:00 571.88 0.01 -- 35.8 100.0
03/11/2019 19:00 571.89 0.02 -- 36.8 100.0
03/11/2019 18:00 571.87 0.03 -- 38.3 100.0
03/11/2019 17:00 571.88 0.04 -- 39.0 100.0
03/11/2019 16:00 571.88 0.07 -- 39.5 100.0
03/11/2019 15:00 571.87 0.12 -- 40.2 100.0
03/11/2019 14:00 571.88 0.11 -- 41.4 100.0
03/11/2019 13:00 571.92 0.06 -- 41.8 100.0
03/11/2019 12:00 571.92 0.02 -- 39.4 100.0
03/11/2019 11:00 571.88 0.02 -- 38.9 100.0
03/11/2019 10:00 571.87 0.00 -- 37.4 100.0
03/11/2019 09:00 571.88 0.00 -- 34.1 100.0
03/11/2019 08:00 571.89 0.00 -- 33.2 100.0
03/11/2019 07:00 571.87 0.00 -- 30.4 100.0
03/11/2019 06:00 571.88 0.00 -- 30.0 100.0
03/11/2019 05:00 571.87 0.00 -- 30.0 100.0
03/11/2019 04:00 571.88 0.00 -- 29.7 100.0
03/11/2019 03:00 571.86 0.00 -- 29.5 100.0
03/11/2019 02:00 571.88 0.00 -- 31.2 100.0
03/11/2019 01:00 571.90 0.00 -- 31.2 100.0
03/11/2019 00:00 571.88 0.00 0.51 30.8 100.0
03/10/2019 23:00 571.90 0.00 -- 30.4 100.0
03/10/2019 22:00 571.89 0.00 -- 29.8 100.0
03/10/2019 21:00 571.88 0.00 -- 30.6 100.0
03/10/2019 20:00 571.86 0.00 -- 31.8 100.0
03/10/2019 19:00 571.84 0.00 -- 31.9 100.0
03/10/2019 18:00 571.86 0.00 -- 31.9 100.0
03/10/2019 17:00 571.86 0.00 -- 31.4 100.0
03/10/2019 16:00 571.82 0.00 -- 31.1 100.0
03/10/2019 15:00 571.84 0.00 -- 30.1 100.0
03/10/2019 14:00 571.88 0.00 -- 26.4 100.0
03/10/2019 13:00 571.84 0.00 -- 26.2 100.0
03/10/2019 12:00 571.85 0.00 -- 24.4 100.0
03/10/2019 11:00 571.81 0.00 -- 21.9 100.0
03/10/2019 10:00 571.82 0.00 -- 23.6 100.0
03/10/2019 09:00 571.82 0.00 -- 22.4 100.0
03/10/2019 08:00 571.85 0.00 -- 21.2 100.0
03/10/2019 07:00 571.80 0.00 -- 20.8 100.0
03/10/2019 06:00 571.85 0.00 -- 20.5 100.0
03/10/2019 05:00 571.80 0.00 -- 19.8 100.0
03/10/2019 04:00 571.82 0.00 -- 19.1 100.0
03/10/2019 03:00 571.83 0.00 -- 18.3 100.0
03/10/2019 02:00 571.77 0.00 -- 15.3 100.0
03/10/2019 01:00 571.83 0.00 -- 20.4 100.0
03/10/2019 00:00 571.83 0.00 0.00 21.1 100.0
03/09/2019 23:00 571.82 0.00 -- 24.5 100.0
03/09/2019 22:00 571.82 0.00 -- 24.5 100.0
03/09/2019 21:00 571.81 0.00 -- 25.5 100.0
03/09/2019 20:00 571.80 0.00 -- 26.4 100.0
03/09/2019 19:00 571.80 0.00 -- 27.4 100.0
03/09/2019 18:00 571.84 0.00 -- 31.3 100.0
03/09/2019 17:00 571.81 0.00 -- 37.4 100.0
03/09/2019 16:00 571.80 0.01 -- 38.9 100.0
03/09/2019 15:00 571.82 0.03 -- 39.8 100.0
03/09/2019 14:00 571.80 0.06 -- 39.7 100.0
03/09/2019 13:00 571.81 0.04 -- 39.2 100.0
03/09/2019 12:00 571.80 0.04 -- 38.2 100.0
03/09/2019 11:00 571.82 0.00 -- 35.5 100.0
03/09/2019 10:00 571.81 0.00 -- 32.4 100.0
03/09/2019 09:00 571.79 0.00 -- 28.4 100.0
03/09/2019 08:00 571.80 0.00 -- 23.3 100.0
03/09/2019 07:00 571.81 0.00 -- 17.0 100.0
03/09/2019 06:00 571.80 0.00 -- 18.4 100.0
03/09/2019 05:00 571.81 0.00 -- 16.8 100.0
03/09/2019 04:00 571.80 0.00 -- 15.5 100.0
03/09/2019 03:00 571.80 0.00 -- 14.5 100.0
03/09/2019 02:00 571.80 0.00 -- 17.8 100.0
03/09/2019 01:00 571.82 0.00 -- 16.9 100.0
03/09/2019 00:00 571.81 0.00 0.18 16.7 100.0
03/08/2019 23:00 571.80 0.00 -- 21.1 100.0
03/08/2019 22:00 571.79 0.00 -- 25.5 100.0
03/08/2019 21:00 571.80 0.00 -- 26.9 100.0
03/08/2019 20:00 571.81 0.00 -- 26.5 100.0
03/08/2019 19:00 571.80 0.00 -- 28.1 100.0
03/08/2019 18:00 571.79 0.00 -- 30.1 100.0
03/08/2019 17:00 571.79 0.00 -- 32.2 100.0
03/08/2019 16:00 571.81 0.00 -- 33.7 100.0
03/08/2019 15:00 571.79 0.00 -- 33.6 100.0
03/08/2019 14:00 571.78 0.00 -- 32.4 100.0
03/08/2019 13:00 571.80 0.00 -- 29.1 100.0
03/08/2019 12:00 571.80 0.00 -- 27.7 100.0
03/08/2019 11:00 571.78 0.00 -- 24.5 100.0
03/08/2019 10:00 571.80 0.00 -- 22.5 100.0
03/08/2019 09:00 571.79 0.00 -- 17.2 100.0
03/08/2019 08:00 571.80 0.00 -- 3.0 100.0
03/08/2019 07:00 571.80 0.00 -- -1.8 100.0
03/08/2019 06:00 571.79 0.00 -- -0.8 100.0
03/08/2019 05:00 571.80 0.00 -- 2.3 100.0
03/08/2019 04:00 571.80 0.00 -- 0.5 100.0
03/08/2019 03:00 571.80 0.00 -- -0.1 100.0
03/08/2019 02:00 571.80 0.00 -- 1.3 100.0
03/08/2019 01:00 571.80 0.00 -- 4.8 100.0
03/08/2019 00:00 571.79 0.00 0.00 6.2 100.0
03/07/2019 23:00 571.78 0.00 -- 7.2 100.0
03/07/2019 22:00 571.80 0.00 -- 6.0 100.0
03/07/2019 21:00 571.79 0.00 -- 8.4 100.0
03/07/2019 20:00 571.79 0.00 -- 9.2 100.0
03/07/2019 19:00 571.79 0.00 -- 13.6 100.0
03/07/2019 18:00 571.79 0.00 -- 15.7 100.0
03/07/2019 17:00 571.79 0.00 -- 19.0 100.0
03/07/2019 16:00 571.78 0.00 -- 19.3 100.0
03/07/2019 15:00 571.78 0.00 -- 19.0 100.0
03/07/2019 14:00 571.81 0.00 -- 19.8 100.0
03/07/2019 13:00 571.81 0.00 -- 18.4 100.0
03/07/2019 12:00 571.78 0.00 -- 17.0 100.0
03/07/2019 11:00 571.82 0.00 -- 14.8 100.0
03/07/2019 10:00 571.80 0.00 -- 11.4 100.0
03/07/2019 09:00 571.79 0.00 -- 8.6 100.0
03/07/2019 08:00 571.79 0.00 -- -5.8 100.0
03/07/2019 07:00 571.78 0.00 -- -7.5 100.0
03/07/2019 06:00 571.78 0.00 -- -6.9 100.0
03/07/2019 05:00 571.79 0.00 -- -6.4 100.0
03/07/2019 04:00 571.79 0.00 -- -1.2 100.0
03/07/2019 03:00 571.77 0.00 -- -1.9 100.0
03/07/2019 02:00 571.79 0.00 -- -4.1 100.0
03/07/2019 01:00 571.78 0.00 -- -2.8 100.0
03/07/2019 00:00 571.78 0.00 0.00 -0.6 100.0
03/06/2019 23:00 571.78 0.00 -- -1.1 100.0
03/06/2019 22:00 571.77 0.00 -- 3.4 100.0
03/06/2019 21:00 571.78 0.00 -- 4.9 100.0
03/06/2019 20:00 571.78 0.00 -- 4.3 100.0
03/06/2019 19:00 571.78 0.00 -- 6.4 100.0
03/06/2019 18:00 571.80 0.00 -- 13.9 100.0
03/06/2019 17:00 571.77 0.00 -- 15.7 100.0
03/06/2019 16:00 571.75 0.00 -- 16.9 100.0
03/06/2019 15:00 571.75 0.00 -- 16.3 100.0
03/06/2019 14:00 571.78 0.00 -- 17.5 100.0
03/06/2019 13:00 571.78 0.00 -- 17.7 100.0
03/06/2019 12:00 571.80 0.00 -- 16.2 100.0
03/06/2019 11:00 571.74 0.00 -- 15.3 100.0
03/06/2019 10:00 571.80 0.00 -- 14.2 100.0
03/06/2019 09:00 571.78 0.00 -- 12.4 100.0
03/06/2019 08:00 571.77 0.00 -- 10.2 100.0
03/06/2019 07:00 571.77 0.00 -- 4.8 100.0
03/06/2019 06:00 571.77 0.00 -- 4.1 100.0
03/06/2019 05:00 571.77 0.00 -- 4.0 100.0
03/06/2019 04:00 571.77 0.00 -- 4.0 100.0
03/06/2019 03:00 571.78 0.00 -- 6.5 100.0
03/06/2019 02:00 571.78 0.00 -- 6.4 100.0
03/06/2019 01:00 571.78 0.00 -- 4.4 100.0
03/06/2019 00:00 571.78 0.00 0.00 8.2 100.0
03/05/2019 23:00 571.75 0.00 -- 10.5 100.0
03/05/2019 22:00 571.76 0.00 -- 10.3 100.0
03/05/2019 21:00 571.77 0.00 -- 9.3 100.0
03/05/2019 20:00 571.75 0.00 -- 12.6 100.0
03/05/2019 19:00 571.76 0.00 -- 15.0 100.0
03/05/2019 18:00 571.76 0.00 -- 19.2 100.0
03/05/2019 17:00 571.76 0.00 -- 21.1 100.0
03/05/2019 16:00 571.76 0.00 -- 23.8 100.0
03/05/2019 15:00 571.76 0.00 -- 23.5 100.0
03/05/2019 14:00 571.74 0.00 -- 23.2 100.0
03/05/2019 13:00 571.75 0.00 -- 22.0 100.0
03/05/2019 12:00 571.76 0.00 -- 21.3 100.0
03/05/2019 11:00 571.77 0.00 -- 20.8 100.0
03/05/2019 10:00 571.74 0.00 -- 17.7 100.0
03/05/2019 09:00 571.75 0.00 -- 15.5 100.0
03/05/2019 08:00 571.75 0.00 -- 12.8 100.0
03/05/2019 07:00 571.76 0.00 -- 9.5 100.0
03/05/2019 06:00 571.76 0.00 -- 9.5 100.0
03/05/2019 05:00 571.75 0.00 -- 7.7 100.0
03/05/2019 04:00 571.76 0.00 -- 10.7 100.0
03/05/2019 03:00 571.75 0.00 -- 9.5 100.0
03/05/2019 02:00 571.74 0.00 -- 11.1 100.0
03/05/2019 01:00 571.75 0.00 -- 14.8 100.0
03/05/2019 00:00 571.75 0.00 0.00 18.1 100.0
03/04/2019 23:00 571.77 0.00 -- 21.0 100.0
03/04/2019 22:00 571.75 0.00 -- 21.9 100.0
03/04/2019 21:00 571.76 0.00 -- 22.5 100.0
03/04/2019 20:00 571.75 0.00 -- 21.2 100.0
03/04/2019 19:00 571.76 0.00 -- 22.5 100.0
03/04/2019 18:00 571.74 0.00 -- 26.6 100.0
03/04/2019 17:00 571.77 0.00 -- 29.9 100.0
03/04/2019 16:00 571.75 0.00 -- 31.3 100.0
03/04/2019 15:00 571.75 0.00 -- 31.9 100.0
03/04/2019 14:00 571.74 0.00 -- 32.4 100.0
03/04/2019 13:00 571.75 0.00 -- 34.2 100.0
03/04/2019 12:00 571.75 0.00 -- 33.2 100.0
03/04/2019 11:00 571.76 0.00 -- 31.6 100.0
03/04/2019 10:00 571.74 0.00 -- 30.1 100.0
03/04/2019 09:00 571.74 0.00 -- 29.5 100.0
03/04/2019 08:00 571.74 0.00 -- 29.0 100.0
03/04/2019 07:00 571.74 0.00 -- 28.8 100.0
03/04/2019 06:00 571.73 0.00 -- 29.0 100.0
03/04/2019 05:00 571.73 0.00 -- 29.2 100.0
03/04/2019 04:00 571.73 0.00 -- 29.3 100.0
03/04/2019 03:00 571.72 0.00 -- 29.4 100.0
03/04/2019 02:00 571.71 0.00 -- 29.6 100.0
03/04/2019 01:00 571.70 0.00 -- 29.8 100.0
03/04/2019 00:00 571.70 0.00 0.00 29.7 100.0
03/03/2019 23:00 571.71 0.00 -- 29.4 100.0
03/03/2019 22:00 571.69 0.00 -- 29.4 100.0
03/03/2019 21:00 571.69 0.00 -- 31.1 100.0
03/03/2019 20:00 571.70 0.00 -- 31.8 100.0
03/03/2019 19:00 571.69 0.00 -- 31.3 100.0
03/03/2019 18:00 571.68 0.00 -- 32.3 100.0
03/03/2019 17:00 571.70 0.00 -- 33.7 100.0
03/03/2019 16:00 571.69 0.01 -- 36.4 100.0
03/03/2019 15:00 571.70 0.00 -- 35.9 100.0
03/03/2019 14:00 571.69 0.00 -- 35.5 100.0
03/03/2019 13:00 571.68 0.00 -- 35.6 100.0
03/03/2019 12:00 571.69 0.00 -- 34.8 100.0
03/03/2019 11:00 571.70 0.00 -- 33.6 100.0
03/03/2019 10:00 571.68 0.00 -- 32.2 100.0
03/03/2019 09:00 571.68 0.00 -- 28.8 100.0
03/03/2019 08:00 571.69 0.00 -- 18.2 100.0
03/03/2019 07:00 571.70 0.00 -- 13.7 100.0
03/03/2019 06:00 571.70 0.00 -- 14.7 100.0
03/03/2019 05:00 571.71 0.00 -- 16.0 100.0
03/03/2019 04:00 571.67 0.00 -- 16.4 100.0
03/03/2019 03:00 571.69 0.00 -- 15.3 100.0
03/03/2019 02:00 571.70 0.00 -- 16.9 100.0
03/03/2019 01:00 571.68 0.00 -- 19.0 100.0
03/03/2019 00:00 571.69 0.00 0.01 21.6 100.0
03/02/2019 23:00 571.69 0.00 -- 24.6 100.0
03/02/2019 22:00 571.68 0.00 -- 27.0 100.0
03/02/2019 21:00 571.69 0.00 -- 27.9 100.0
03/02/2019 20:00 571.68 0.00 -- 27.6 100.0
03/02/2019 19:00 571.68 0.00 -- 28.1 100.0
03/02/2019 18:00 571.69 0.00 -- 28.6 100.0
03/02/2019 17:00 571.67 0.00 -- 29.5 100.0
03/02/2019 16:00 571.69 0.00 -- 30.7 100.0
03/02/2019 15:00 571.68 0.00 -- 30.5 100.0
03/02/2019 14:00 571.69 0.00 -- 30.3 100.0
03/02/2019 13:00 571.68 0.00 -- 30.8 100.0
03/02/2019 12:00 571.70 0.00 -- 31.2 100.0
03/02/2019 11:00 571.69 0.00 -- 28.4 100.0
03/02/2019 10:00 571.67 0.00 -- 25.8 100.0
03/02/2019 09:00 571.70 0.00 -- 22.4 100.0
03/02/2019 08:00 571.67 0.00 -- 21.0 100.0
03/02/2019 07:00 571.69 0.00 -- 18.6 100.0
03/02/2019 06:00 571.69 0.00 -- 15.6 100.0
03/02/2019 05:00 571.68 0.00 -- 15.2 100.0
03/02/2019 04:00 571.68 0.00 -- 16.7 100.0
03/02/2019 03:00 571.68 0.00 -- 16.7 100.0
03/02/2019 02:00 571.69 0.00 -- 16.4 100.0
03/02/2019 01:00 571.68 0.00 -- 18.0 100.0
03/02/2019 00:00 571.68 0.00 0.00 18.9 100.0
03/01/2019 23:00 571.68 0.00 -- 21.3 100.0
03/01/2019 22:00 571.68 0.00 -- 19.8 100.0
03/01/2019 21:00 571.68 0.00 -- 22.2 100.0
03/01/2019 20:00 571.68 0.00 -- 24.0 100.0
03/01/2019 19:00 571.68 0.00 -- 23.6 100.0
03/01/2019 18:00 571.68 0.00 -- 26.6 100.0
03/01/2019 17:00 571.68 0.00 -- 30.6 100.0
03/01/2019 16:00 571.67 0.00 -- 33.5 100.0
03/01/2019 15:00 571.68 0.00 -- 33.2 100.0
03/01/2019 14:00 571.69 0.00 -- 33.1 100.0
03/01/2019 13:00 571.66 0.00 -- 30.7 100.0
03/01/2019 12:00 571.68 0.00 -- 30.1 100.0
03/01/2019 11:00 571.67 0.00 -- 28.2 100.0
03/01/2019 10:00 571.68 0.00 -- 21.4 100.0
03/01/2019 09:00 571.69 0.00 -- 8.0 100.0
03/01/2019 08:00 571.68 0.00 -- 4.0 100.0
03/01/2019 07:00 571.67 0.00 -- 1.6 100.0
03/01/2019 06:00 571.68 0.00 -- 0.4 100.0
03/01/2019 05:00 571.68 0.00 -- 0.4 100.0
03/01/2019 04:00 571.67 0.00 -- 0.5 100.0
03/01/2019 03:00 571.67 0.00 -- 1.4 100.0
03/01/2019 02:00 571.69 0.00 -- 2.6 100.0
03/01/2019 01:00 571.68 0.00 -- 3.4 100.0
03/01/2019 00:00 571.68 0.00 0.00 4.9 100.0
02/28/2019 23:00 571.67 0.00 -- 6.1 100.0
02/28/2019 22:00 571.67 0.00 -- 7.0 100.0
02/28/2019 21:00 571.68 0.00 -- 10.1 100.0
02/28/2019 20:00 571.67 0.00 -- 14.3 100.0
02/28/2019 19:00 571.68 0.00 -- 16.2 100.0
02/28/2019 18:00 571.67 0.00 -- 18.0 100.0
02/28/2019 17:00 571.68 0.00 -- 23.3 100.0
02/28/2019 16:00 571.67 0.00 -- 24.6 100.0
02/28/2019 15:00 571.67 0.00 -- 24.2 100.0
02/28/2019 14:00 571.66 0.00 -- 23.2 100.0
02/28/2019 13:00 571.67 0.00 -- 21.7 100.0
02/28/2019 12:00 571.67 0.00 -- 19.8 100.0
02/28/2019 11:00 571.67 0.00 -- 17.7 100.0
02/28/2019 10:00 571.67 0.00 -- 13.5 100.0
02/28/2019 09:00 571.67 0.00 -- 10.3 100.0
02/28/2019 08:00 571.68 0.00 -- 9.3 100.0
02/28/2019 07:00 571.65 0.00 -- 8.4 100.0
02/28/2019 06:00 571.66 0.00 -- 9.7 100.0
02/28/2019 05:00 571.66 0.00 -- 9.2 100.0
02/28/2019 04:00 571.67 0.00 -- 9.1 100.0
02/28/2019 03:00 571.65 0.00 -- 9.5 100.0
02/28/2019 02:00 571.67 0.00 -- 9.5 100.0
02/28/2019 01:00 571.65 0.00 -- 9.6 100.0
02/28/2019 00:00 571.66 0.00 0.00 9.7 100.0
02/27/2019 23:00 571.65 0.00 -- 9.6 100.0
02/27/2019 22:00 571.65 0.00 -- 9.9 100.0
02/27/2019 21:00 571.65 0.00 -- 10.4 100.0
02/27/2019 20:00 571.67 0.00 -- 12.1 100.0
02/27/2019 19:00 571.67 0.00 -- 12.5 100.0
02/27/2019 18:00 571.65 0.00 -- 12.5 100.0
02/27/2019 17:00 571.65 0.00 -- 12.6 100.0
02/27/2019 16:00 571.66 0.00 -- 12.8 100.0
02/27/2019 15:00 571.66 0.00 -- 12.5 100.0
02/27/2019 14:00 571.65 0.00 -- 11.5 100.0
02/27/2019 13:00 571.68 0.00 -- 11.0 100.0
02/27/2019 12:00 571.66 0.00 -- 11.2 100.0
02/27/2019 11:00 571.63 0.00 -- 8.4 100.0
02/27/2019 10:00 571.65 0.00 -- 7.0 100.0
02/27/2019 09:00 571.64 0.00 -- 4.0 100.0
02/27/2019 08:00 571.69 0.00 -- 1.4 100.0
02/27/2019 07:00 571.66 0.00 -- -0.1 100.0
02/27/2019 06:00 571.66 0.00 -- 0.9 100.0
02/27/2019 05:00 571.65 0.00 -- 1.8 100.0
02/27/2019 04:00 571.65 0.00 -- 2.3 100.0
02/27/2019 03:00 571.65 0.00 -- 3.1 100.0
02/27/2019 02:00 571.65 0.00 -- 4.0 100.0
02/27/2019 01:00 571.65 0.00 -- 4.8 100.0
02/27/2019 00:00 571.65 0.00 0.00 5.7 100.0
02/26/2019 23:00 571.66 0.00 -- 6.5 100.0
02/26/2019 22:00 571.66 0.00 -- 7.4 100.0
02/26/2019 21:00 571.66 0.00 -- 8.2 100.0
02/26/2019 20:00 571.66 0.00 -- 9.1 100.0
02/26/2019 19:00 571.66 0.00 -- 9.9 100.0
02/26/2019 18:00 571.62 0.00 -- 10.8 100.0
02/26/2019 17:00 571.62 0.00 -- 12.2 100.0
02/26/2019 16:00 571.67 0.00 -- 13.4 100.0
02/26/2019 15:00 571.60 0.00 -- 14.1 100.0
02/26/2019 14:00 571.66 0.00 -- 14.6 100.0
02/26/2019 13:00 571.62 0.00 -- 14.5 100.0
02/26/2019 12:00 571.62 0.00 -- 14.3 100.0
02/26/2019 11:00 571.64 0.00 -- 13.4 100.0
02/26/2019 10:00 571.65 0.00 -- 12.5 100.0
02/26/2019 09:00 571.70 0.00 -- 11.1 100.0
02/26/2019 08:00 571.60 0.00 -- 10.4 100.0
02/26/2019 07:00 571.62 0.00 -- 10.4 100.0
02/26/2019 06:00 571.63 0.00 -- 11.9 100.0
02/26/2019 05:00 571.64 0.00 -- 13.0 100.0
02/26/2019 04:00 571.62 0.00 -- 14.0 100.0
02/26/2019 03:00 571.67 0.00 -- 15.0 100.0
02/26/2019 02:00 571.62 0.00 -- 15.9 100.0
02/26/2019 01:00 571.60 0.00 -- 16.9 100.0
02/26/2019 00:00 571.61 0.00 0.00 18.4 100.0
02/25/2019 23:00 571.69 0.00 -- 19.6 100.0
02/25/2019 22:00 571.64 0.00 -- 21.1 100.0
02/25/2019 21:00 571.65 0.00 -- 22.5 100.0
02/25/2019 20:00 571.61 0.00 -- 22.4 100.0
02/25/2019 19:00 571.63 0.00 -- 22.7 100.0
02/25/2019 18:00 571.62 0.00 -- 25.3 100.0
02/25/2019 17:00 571.65 0.00 -- 26.1 100.0
02/25/2019 16:00 571.67 0.00 -- 27.6 100.0
02/25/2019 15:00 571.58 0.01 -- 29.2 100.0
02/25/2019 14:00 571.65 0.00 -- 29.5 100.0
02/25/2019 13:00 571.64 0.00 -- 29.3 100.0
02/25/2019 12:00 571.63 0.00 -- 29.9 100.0
02/25/2019 11:00 571.64 0.00 -- 28.5 100.0
02/25/2019 10:00 571.57 0.00 -- 30.6 100.0
02/25/2019 09:00 571.61 0.00 -- 28.6 100.0
02/25/2019 08:00 571.65 0.00 -- 30.4 100.0
02/25/2019 07:00 571.63 0.00 -- 30.1 100.0
02/25/2019 06:00 571.62 0.00 -- 30.7 100.0
02/25/2019 05:00 571.60 0.00 -- 31.8 100.0
02/25/2019 04:00 571.63 0.00 -- 32.3 100.0
02/25/2019 03:00 571.63 0.00 -- 33.1 100.0
02/25/2019 02:00 571.59 0.00 -- 33.6 100.0
02/25/2019 01:00 571.61 0.00 -- 33.6 100.0
02/25/2019 00:00 571.63 0.00 0.01 34.3 100.0
02/24/2019 23:00 571.61 0.00 -- 32.2 100.0
02/24/2019 22:00 571.61 0.00 -- 31.9 100.0
02/24/2019 21:00 571.63 0.00 -- 31.7 100.0
02/24/2019 20:00 571.59 0.00 -- 31.5 100.0
02/24/2019 19:00 571.60 0.03 -- 31.7 100.0
02/24/2019 18:00 571.62 0.05 -- 32.9 100.0
02/24/2019 17:00 571.53 0.11 -- 33.4 100.0
02/24/2019 16:00 571.55 0.09 -- 33.1 100.0
02/24/2019 15:00 571.58 0.06 -- 32.9 100.0
02/24/2019 14:00 571.58 0.07 -- 32.5 100.0
02/24/2019 13:00 571.57 0.00 -- 32.5 100.0
02/24/2019 12:00 571.55 0.00 -- 32.1 100.0
02/24/2019 11:00 571.56 0.00 -- 31.8 100.0
02/24/2019 10:00 571.56 0.00 -- 31.9 100.0
02/24/2019 09:00 571.55 0.00 -- 28.5 100.0
02/24/2019 08:00 571.56 0.00 -- 27.1 100.0
02/24/2019 07:00 571.54 0.00 -- 25.6 100.0
02/24/2019 06:00 571.56 0.00 -- 25.3 100.0
02/24/2019 05:00 571.54 0.00 -- 25.3 100.0
02/24/2019 04:00 571.53 0.00 -- 24.7 100.0
02/24/2019 03:00 571.55 0.00 -- 22.4 100.0
02/24/2019 02:00 571.55 0.00 -- 21.1 100.0
02/24/2019 01:00 571.52 0.00 -- 21.1 100.0
02/24/2019 00:00 571.53 0.00 0.41 20.7 100.0
02/23/2019 23:00 571.54 0.00 -- 19.9 100.0
02/23/2019 22:00 571.56 0.00 -- 20.9 100.0
02/23/2019 21:00 571.53 0.00 -- 22.1 100.0
02/23/2019 20:00 571.54 0.00 -- 24.2 100.0
02/23/2019 19:00 571.53 0.00 -- 25.7 100.0
02/23/2019 18:00 571.54 0.00 -- 27.9 100.0
02/23/2019 17:00 571.52 0.00 -- 32.3 100.0
02/23/2019 16:00 571.54 0.01 -- 35.5 100.0
02/23/2019 15:00 571.54 0.00 -- 34.6 100.0
02/23/2019 14:00 571.55 0.02 -- 34.7 100.0
02/23/2019 13:00 571.53 0.01 -- 34.5 100.0
02/23/2019 12:00 571.53 0.00 -- 34.1 100.0
02/23/2019 11:00 571.53 0.00 -- 31.2 100.0
02/23/2019 10:00 571.54 0.00 -- 28.0 100.0
02/23/2019 09:00 571.53 0.00 -- 24.8 100.0
02/23/2019 08:00 571.53 0.00 -- 19.6 100.0
02/23/2019 07:00 571.52 0.00 -- 12.0 100.0
02/23/2019 06:00 571.53 0.00 -- 12.7 100.0
02/23/2019 05:00 571.52 0.00 -- 14.2 100.0
02/23/2019 04:00 571.53 0.00 -- 15.5 100.0
02/23/2019 03:00 571.52 0.00 -- 16.7 100.0
02/23/2019 02:00 571.53 0.00 -- 17.3 100.0
02/23/2019 01:00 571.53 0.00 -- 19.8 100.0
02/23/2019 00:00 571.53 0.00 0.04 21.7 100.0
02/22/2019 23:00 571.51 0.00 -- 22.1 100.0
02/22/2019 22:00 571.52 0.00 -- 24.3 100.0
02/22/2019 21:00 571.53 0.00 -- 26.0 100.0
02/22/2019 20:00 571.52 0.00 -- 27.7 100.0
02/22/2019 19:00 571.52 0.00 -- 28.5 100.0
02/22/2019 18:00 571.52 0.00 -- 30.8 100.0
02/22/2019 17:00 571.52 0.01 -- 34.4 100.0
02/22/2019 16:00 571.54 0.00 -- 35.6 100.0
02/22/2019 15:00 571.51 0.01 -- 36.2 100.0
02/22/2019 14:00 571.50 0.01 -- 35.8 100.0
02/22/2019 13:00 571.53 0.02 -- 35.7 100.0
02/22/2019 12:00 571.52 0.01 -- 35.3 100.0
02/22/2019 11:00 571.52 0.00 -- 33.9 100.0
02/22/2019 10:00 571.50 0.00 -- 32.8 100.0
02/22/2019 09:00 571.52 0.00 -- 31.8 100.0
02/22/2019 08:00 571.50 0.00 -- 26.1 100.0
02/22/2019 07:00 571.51 0.00 -- 23.3 100.0
02/22/2019 06:00 571.50 0.00 -- 25.2 100.0
02/22/2019 05:00 571.51 0.00 -- 27.3 100.0
02/22/2019 04:00 571.51 0.00 -- 30.1 100.0
02/22/2019 03:00 571.52 0.00 -- 31.3 100.0
02/22/2019 02:00 571.52 0.00 -- 32.9 100.0
02/22/2019 01:00 571.53 0.01 -- 34.1 100.0
02/22/2019 00:00 571.49 0.02 0.07 36.0 100.0
02/21/2019 23:00 571.54 0.03 -- 36.2 100.0
02/21/2019 22:00 571.49 0.03 -- 36.7 100.0
02/21/2019 21:00 571.52 0.01 -- 36.8 100.0
02/21/2019 20:00 571.52 0.00 -- 36.7 85.0
02/21/2019 19:00 571.52 0.00 -- 36.7 100.0
02/21/2019 18:00 571.52 0.00 -- 36.3 100.0
02/21/2019 17:00 571.51 0.00 -- 36.1 100.0
02/21/2019 16:00 571.51 0.00 -- 36.9 62.0
02/21/2019 15:00 571.51 0.00 -- 37.1 63.0
02/21/2019 14:00 571.52 0.00 -- 35.6 100.0
02/21/2019 13:00 571.50 0.00 -- 33.8 100.0
02/21/2019 12:00 571.51 0.00 -- 30.9 100.0
02/21/2019 11:00 571.51 0.00 -- 27.3 100.0
02/21/2019 10:00 571.49 0.00 -- 24.1 100.0
02/21/2019 09:00 571.50 0.00 -- 22.1 100.0
02/21/2019 08:00 571.51 0.00 -- 20.8 100.0
02/21/2019 07:00 571.51 0.00 -- 20.2 100.0
02/21/2019 06:00 571.50 0.00 -- 19.5 100.0
02/21/2019 05:00 571.51 0.00 -- 19.4 100.0
02/21/2019 04:00 571.49 0.00 -- 19.4 100.0
02/21/2019 03:00 571.48 0.00 -- 19.7 100.0
02/21/2019 02:00 571.49 0.00 -- 19.6 100.0
02/21/2019 01:00 571.50 0.00 -- 19.7 100.0
02/21/2019 00:00 571.48 0.00 0.09 19.8 100.0
02/20/2019 23:00 571.47 0.00 -- 20.0 100.0
02/20/2019 22:00 571.47 0.00 -- 22.6 100.0
02/20/2019 21:00 571.48 0.00 -- 22.9 100.0
02/20/2019 20:00 571.46 0.00 -- 22.3 100.0
02/20/2019 19:00 571.47 0.00 -- 22.7 100.0
02/20/2019 18:00 571.45 0.00 -- 23.1 100.0
02/20/2019 17:00 571.47 0.00 -- 24.8 100.0
02/20/2019 16:00 571.47 0.00 -- 24.7 100.0
02/20/2019 15:00 571.46 0.00 -- 24.7 100.0
02/20/2019 14:00 571.48 0.00 -- 23.7 100.0
02/20/2019 13:00 571.48 0.00 -- 22.8 100.0
02/20/2019 12:00 571.47 0.00 -- 22.0 100.0
02/20/2019 11:00 571.47 0.00 -- 19.6 100.0
02/20/2019 10:00 571.46 0.00 -- 17.0 100.0
02/20/2019 09:00 571.46 0.00 -- 15.0 100.0
02/20/2019 08:00 571.46 0.00 -- 3.0 100.0
02/20/2019 07:00 571.45 0.00 -- -1.0 100.0
02/20/2019 06:00 571.46 0.00 -- -1.3 100.0
02/20/2019 05:00 571.45 0.00 -- -0.1 100.0
02/20/2019 04:00 571.46 0.00 -- 3.3 100.0
02/20/2019 03:00 571.46 0.00 -- 3.2 100.0
02/20/2019 02:00 571.46 0.00 -- 5.5 100.0
02/20/2019 01:00 571.46 0.00 -- 8.7 100.0
02/20/2019 00:00 571.48 0.00 0.00 10.6 100.0
02/19/2019 23:00 571.46 0.00 -- 13.4 100.0
02/19/2019 22:00 571.44 0.00 -- 8.8 100.0
02/19/2019 21:00 571.45 0.00 -- 10.6 100.0
02/19/2019 20:00 571.46 0.00 -- 13.9 100.0
02/19/2019 19:00 571.46 0.00 -- 14.2 100.0
02/19/2019 18:00 571.45 0.00 -- 14.5 100.0
02/19/2019 17:00 571.45 0.00 -- 14.9 100.0
02/19/2019 16:00 571.45 0.00 -- 15.2 100.0
02/19/2019 15:00 571.44 0.00 -- 15.5 100.0
02/19/2019 14:00 571.44 0.00 -- 15.8 100.0
02/19/2019 13:00 571.44 0.00 -- 16.2 100.0
02/19/2019 12:00 571.43 0.00 -- 16.5 100.0
02/19/2019 11:00 571.43 0.00 -- 16.8 100.0
02/19/2019 10:00 571.50 0.00 -- 13.9 100.0
02/19/2019 09:00 571.49 0.00 -- 11.3 100.0
02/19/2019 08:00 571.50 0.00 -- 9.1 100.0
02/19/2019 07:00 571.52 0.00 -- 7.7 100.0
02/19/2019 06:00 571.48 0.00 -- 8.5 100.0
02/19/2019 05:00 571.51 0.00 -- 9.5 100.0
02/19/2019 04:00 571.51 0.00 -- 10.3 100.0
02/19/2019 03:00 571.50 0.00 -- 11.2 100.0
02/19/2019 02:00 571.52 0.00 -- 11.6 100.0
02/19/2019 01:00 571.50 0.00 -- 11.8 100.0
02/19/2019 00:00 571.52 0.00 0.00 11.9 100.0
02/18/2019 23:00 571.52 0.00 -- 10.3 100.0
02/18/2019 22:00 571.50 0.00 -- 13.3 100.0
02/18/2019 21:00 571.50 0.00 -- 15.4 100.0
02/18/2019 20:00 571.50 0.00 -- 18.7 100.0
02/18/2019 19:00 571.50 0.00 -- 22.0 100.0
02/18/2019 18:00 571.51 0.00 -- 21.5 100.0
02/18/2019 17:00 571.51 0.00 -- 22.1 100.0
02/18/2019 16:00 571.50 0.00 -- 21.8 100.0
02/18/2019 15:00 571.50 0.00 -- 21.1 100.0
02/18/2019 14:00 571.51 0.00 -- 19.7 100.0
02/18/2019 13:00 571.50 0.00 -- 19.0 100.0
02/18/2019 12:00 571.52 0.00 -- 18.1 100.0
02/18/2019 11:00 571.51 0.00 -- 17.2 100.0
02/18/2019 10:00 571.49 0.00 -- 17.1 100.0
02/18/2019 09:00 571.52 0.00 -- 17.2 100.0
02/18/2019 08:00 571.50 0.00 -- 17.4 100.0
02/18/2019 07:00 571.49 0.00 -- 18.8 100.0
02/18/2019 06:00 571.51 0.00 -- 19.6 100.0
02/18/2019 05:00 571.52 0.00 -- 19.7 100.0
02/18/2019 04:00 571.51 0.00 -- 20.9 100.0
02/18/2019 03:00 571.50 0.00 -- 21.3 100.0
02/18/2019 02:00 571.52 0.00 -- 21.0 100.0
02/18/2019 01:00 571.54 0.00 -- 21.7 100.0
02/18/2019 00:00 571.53 0.00 0.00 20.2 100.0
02/17/2019 23:00 571.51 0.00 -- 22.3 100.0
02/17/2019 22:00 571.54 0.00 -- 19.8 100.0
02/17/2019 21:00 571.54 0.00 -- 20.1 100.0
02/17/2019 20:00 571.53 0.00 -- 22.7 100.0
02/17/2019 19:00 571.50 0.00 -- 22.0 100.0
02/17/2019 18:00 571.51 0.00 -- 24.8 100.0
02/17/2019 17:00 571.50 0.00 -- 26.9 100.0
02/17/2019 16:00 571.52 0.00 -- 29.3 100.0
02/17/2019 15:00 571.51 0.00 -- 29.5 100.0
02/17/2019 14:00 571.52 0.00 -- 28.4 100.0
02/17/2019 13:00 571.52 0.00 -- 28.2 100.0
02/17/2019 12:00 571.52 0.00 -- 25.8 100.0
02/17/2019 11:00 571.52 0.00 -- 23.1 100.0
02/17/2019 10:00 571.52 0.00 -- 20.5 100.0
02/17/2019 09:00 571.52 0.00 -- 17.2 100.0
02/17/2019 08:00 571.52 0.00 -- 12.8 100.0
02/17/2019 07:00 571.51 0.00 -- 11.9 100.0
02/17/2019 06:00 571.51 0.00 -- 12.1 100.0
02/17/2019 05:00 571.53 0.00 -- 11.8 100.0
02/17/2019 04:00 571.52 0.00 -- 14.5 100.0
02/17/2019 03:00 571.51 0.00 -- 15.6 100.0
02/17/2019 02:00 571.52 0.00 -- 17.7 100.0
02/17/2019 01:00 571.53 0.00 -- 18.3 100.0
02/17/2019 00:00 571.52 0.00 0.00 18.9 100.0
02/16/2019 23:00 571.51 0.00 -- 19.0 100.0
02/16/2019 22:00 571.53 0.00 -- 22.6 100.0
02/16/2019 21:00 571.52 0.00 -- 23.6 100.0
02/16/2019 20:00 571.51 0.00 -- 26.2 100.0
02/16/2019 19:00 571.53 0.00 -- 27.7 100.0
02/16/2019 18:00 571.53 0.00 -- 29.6 100.0
02/16/2019 17:00 571.52 0.00 -- 30.5 100.0
02/16/2019 16:00 571.54 0.00 -- 32.2 100.0
02/16/2019 15:00 571.52 0.00 -- 32.3 100.0
02/16/2019 14:00 571.53 0.00 -- 32.7 100.0
02/16/2019 13:00 571.55 0.00 -- 33.3 100.0
02/16/2019 12:00 571.54 0.00 -- 33.1 100.0
02/16/2019 11:00 571.55 0.00 -- 32.5 100.0
02/16/2019 10:00 571.53 0.00 -- 31.1 100.0
02/16/2019 09:00 571.55 0.00 -- 28.9 100.0
02/16/2019 08:00 571.53 0.00 -- 27.0 100.0
02/16/2019 07:00 571.56 0.00 -- 26.3 100.0
02/16/2019 06:00 571.56 0.00 -- 25.7 100.0
02/16/2019 05:00 571.54 0.00 -- 26.6 100.0
02/16/2019 04:00 571.56 0.00 -- 28.4 100.0
02/16/2019 03:00 571.54 0.00 -- 29.7 100.0
02/16/2019 02:00 571.56 0.00 -- 28.4 100.0
02/16/2019 01:00 571.55 0.00 -- 29.2 100.0
02/16/2019 00:00 571.54 0.00 0.00 30.2 100.0
02/15/2019 23:00 571.55 0.00 -- 32.4 100.0
02/15/2019 22:00 571.54 0.00 -- 30.2 100.0
02/15/2019 21:00 571.54 0.00 -- 29.4 100.0
02/15/2019 20:00 571.54 0.00 -- 28.7 100.0
02/15/2019 19:00 571.53 0.00 -- 28.9 100.0
02/15/2019 18:00 571.57 0.00 -- 28.2 100.0
02/15/2019 17:00 571.52 0.00 -- 28.0 100.0
02/15/2019 16:00 571.56 0.00 -- 27.7 100.0
02/15/2019 15:00 571.61 0.00 -- 26.9 100.0
02/15/2019 14:00 571.59 0.00 -- 27.9 100.0
02/15/2019 13:00 571.55 0.00 -- 28.4 100.0
02/15/2019 12:00 571.52 0.00 -- 26.7 100.0
02/15/2019 11:00 571.56 0.00 -- 25.9 100.0
02/15/2019 10:00 571.54 0.00 -- 24.8 100.0
02/15/2019 09:00 571.55 0.00 -- 23.7 100.0
02/15/2019 08:00 571.54 0.00 -- 19.3 100.0
02/15/2019 07:00 571.57 0.00 -- 17.8 100.0
02/15/2019 06:00 571.57 0.00 -- 16.2 100.0
02/15/2019 05:00 571.55 0.00 -- 13.7 100.0
02/15/2019 04:00 571.54 0.00 -- 15.1 100.0
02/15/2019 03:00 571.56 0.00 -- 16.4 100.0
02/15/2019 02:00 571.56 0.00 -- 17.3 100.0
02/15/2019 01:00 571.56 0.00 -- 16.5 100.0
02/15/2019 00:00 571.56 0.00 0.00 17.2 100.0
02/14/2019 23:00 571.54 0.00 -- 17.6 100.0
02/14/2019 22:00 571.54 0.00 -- 17.9 100.0
02/14/2019 21:00 571.55 0.00 -- 20.4 100.0
02/14/2019 20:00 571.55 0.00 -- 22.3 100.0
02/14/2019 19:00 571.55 0.00 -- 24.2 100.0
02/14/2019 18:00 571.55 0.00 -- 25.7 100.0
02/14/2019 17:00 571.55 0.00 -- 29.8 100.0
02/14/2019 16:00 571.55 0.00 -- 31.6 100.0
02/14/2019 15:00 571.51 0.00 -- 30.9 100.0
02/14/2019 14:00 571.55 0.00 -- 30.7 100.0
02/14/2019 13:00 571.56 0.00 -- 29.4 100.0
02/14/2019 12:00 571.57 0.00 -- 28.9 100.0
02/14/2019 11:00 571.57 0.00 -- 26.8 100.0
02/14/2019 10:00 571.56 0.00 -- 25.6 100.0
02/14/2019 09:00 571.56 0.00 -- 24.9 100.0
02/14/2019 08:00 571.57 0.00 -- 24.2 100.0
02/14/2019 07:00 571.55 0.00 -- 23.6 100.0
02/14/2019 06:00 571.57 0.00 -- 23.3 100.0
02/14/2019 05:00 571.54 0.00 -- 24.0 100.0
02/14/2019 04:00 571.56 0.00 -- 23.4 100.0
02/14/2019 03:00 571.58 0.00 -- 22.6 100.0
02/14/2019 02:00 571.56 0.00 -- 21.8 100.0
02/14/2019 01:00 571.56 0.00 -- 25.4 100.0
02/14/2019 00:00 571.57 0.00 0.00 26.2 100.0
02/13/2019 23:00 571.57 0.00 -- 26.7 100.0
02/13/2019 22:00 571.56 0.00 -- 28.6 100.0
02/13/2019 21:00 571.55 0.00 -- 27.1 100.0
02/13/2019 20:00 571.56 0.00 -- 25.0 100.0
02/13/2019 19:00 571.56 0.00 -- 30.1 100.0
02/13/2019 18:00 571.58 0.00 -- 30.8 100.0
02/13/2019 17:00 571.58 0.00 -- 30.8 100.0
02/13/2019 16:00 571.55 0.00 -- 32.2 100.0
02/13/2019 15:00 571.57 0.01 -- 30.9 100.0
02/13/2019 14:00 571.58 0.00 -- 30.2 100.0
02/13/2019 13:00 571.56 0.00 -- 28.7 100.0
02/13/2019 12:00 571.54 0.00 -- 27.0 100.0
02/13/2019 11:00 571.59 0.00 -- 25.9 100.0
02/13/2019 10:00 571.57 0.00 -- 25.5 100.0
02/13/2019 09:00 571.58 0.00 -- 24.8 100.0
02/13/2019 08:00 571.58 0.00 -- 24.2 100.0
02/13/2019 07:00 571.53 0.00 -- 23.3 100.0
02/13/2019 06:00 571.57 0.00 -- 22.6 100.0
02/13/2019 05:00 571.53 0.00 -- 23.1 100.0
02/13/2019 04:00 571.58 0.00 -- 22.0 100.0
02/13/2019 03:00 571.54 0.00 -- 20.9 100.0
02/13/2019 02:00 571.52 0.00 -- 20.8 100.0
02/13/2019 01:00 571.58 0.00 -- 20.2 100.0
02/13/2019 00:00 571.49 0.00 0.01 19.4 100.0
02/12/2019 23:00 571.49 0.00 -- 18.8 100.0
02/12/2019 22:00 571.56 0.00 -- 17.9 100.0
02/12/2019 21:00 571.48 0.00 -- 16.3 100.0
02/12/2019 20:00 571.49 0.00 -- 15.7 100.0
02/12/2019 19:00 571.49 0.00 -- 15.0 100.0
02/12/2019 18:00 571.48 0.00 -- 15.0 100.0
02/12/2019 17:00 571.50 0.00 -- 16.1 100.0
02/12/2019 16:00 571.49 0.00 -- 18.6 100.0
02/12/2019 15:00 571.48 0.00 -- 19.1 100.0
02/12/2019 14:00 571.50 0.00 -- 18.7 100.0
02/12/2019 13:00 571.49 0.00 -- 18.1 100.0
02/12/2019 12:00 571.47 0.00 -- 18.0 100.0
02/12/2019 11:00 571.49 0.00 -- 16.6 100.0
02/12/2019 10:00 571.48 0.00 -- 14.5 100.0
02/12/2019 09:00 571.47 0.00 -- 11.2 100.0
02/12/2019 08:00 571.48 0.00 -- 8.3 100.0
02/12/2019 07:00 571.49 0.00 -- 7.7 100.0
02/12/2019 06:00 571.48 0.00 -- 7.6 100.0
02/12/2019 05:00 571.48 0.00 -- 8.2 100.0
02/12/2019 04:00 571.46 0.00 -- 9.5 100.0
02/12/2019 03:00 571.48 0.00 -- 10.3 100.0
02/12/2019 02:00 571.48 0.00 -- 11.2 100.0
02/12/2019 01:00 571.48 0.00 -- 11.1 100.0
02/12/2019 00:00 571.43 0.00 0.00 12.3 100.0
02/11/2019 23:00 571.49 0.00 -- 12.9 100.0
02/11/2019 22:00 571.48 0.00 -- 15.6 100.0
02/11/2019 21:00 571.50 0.00 -- 18.1 100.0
02/11/2019 20:00 571.48 0.00 -- 19.9 100.0
02/11/2019 19:00 571.49 0.00 -- 20.4 100.0
02/11/2019 18:00 571.49 0.00 -- 22.8 100.0
02/11/2019 17:00 571.49 0.00 -- 24.7 100.0
02/11/2019 16:00 571.47 0.00 -- 26.2 100.0
02/11/2019 15:00 571.50 0.00 -- 26.5 100.0
02/11/2019 14:00 571.49 0.00 -- 26.5 100.0
02/11/2019 13:00 571.49 0.00 -- 25.7 100.0
02/11/2019 12:00 571.49 0.00 -- 24.4 100.0
02/11/2019 11:00 571.49 0.00 -- 22.4 100.0
02/11/2019 10:00 571.50 0.00 -- 20.6 100.0
02/11/2019 09:00 571.52 0.00 -- 18.2 100.0
02/11/2019 08:00 571.48 0.00 -- 14.1 100.0
02/11/2019 07:00 571.51 0.00 -- 12.7 100.0
02/11/2019 06:00 571.51 0.00 -- 14.3 100.0
02/11/2019 05:00 571.49 0.00 -- 16.5 100.0
02/11/2019 04:00 571.50 0.00 -- 17.7 100.0
02/11/2019 03:00 571.50 0.00 -- 18.6 100.0
02/11/2019 02:00 571.48 0.00 -- 19.2 100.0
02/11/2019 01:00 571.51 0.00 -- 19.6 100.0
02/11/2019 00:00 571.48 0.00 0.00 20.4 100.0
02/10/2019 23:00 571.49 0.00 -- 21.2 100.0
02/10/2019 22:00 571.50 0.00 -- 20.6 100.0
02/10/2019 21:00 571.50 0.00 -- 19.2 100.0
02/10/2019 20:00 571.51 0.00 -- 20.6 100.0
02/10/2019 19:00 571.50 0.00 -- 20.6 100.0
02/10/2019 18:00 571.50 0.00 -- 22.0 100.0
02/10/2019 17:00 571.49 0.00 -- 24.3 100.0
02/10/2019 16:00 571.51 0.00 -- 25.6 100.0
02/10/2019 15:00 571.50 0.00 -- 25.5 100.0
02/10/2019 14:00 571.48 0.00 -- 24.7 100.0
02/10/2019 13:00 571.49 0.00 -- 22.9 100.0
02/10/2019 12:00 571.52 0.00 -- 21.8 100.0
02/10/2019 11:00 571.49 0.00 -- 20.4 100.0
02/10/2019 10:00 571.51 0.00 -- 18.7 100.0
02/10/2019 09:00 571.49 0.00 -- 17.6 100.0
02/10/2019 08:00 571.51 0.00 -- 16.3 100.0
02/10/2019 07:00 571.50 0.00 -- 15.8 100.0
02/10/2019 06:00 571.51 0.00 -- 16.1 100.0
02/10/2019 05:00 571.51 0.00 -- 16.5 100.0
02/10/2019 04:00 571.50 0.00 -- 16.5 100.0
02/10/2019 03:00 571.51 0.00 -- 16.3 100.0
02/10/2019 02:00 571.51 0.00 -- 17.3 100.0
02/10/2019 01:00 571.53 0.00 -- 17.5 100.0
02/10/2019 00:00 571.52 0.00 0.00 16.9 100.0
02/09/2019 23:00 571.51 0.00 -- 16.6 100.0
02/09/2019 22:00 571.51 0.00 -- 17.6 100.0
02/09/2019 21:00 571.53 0.00 -- 18.2 100.0
02/09/2019 20:00 571.53 0.00 -- 19.2 100.0
02/09/2019 19:00 571.53 0.00 -- 20.8 100.0
02/09/2019 18:00 571.50 0.00 -- 21.4 100.0
02/09/2019 17:00 571.53 0.00 -- 23.2 100.0
02/09/2019 16:00 571.51 0.00 -- 24.5 100.0
02/09/2019 15:00 571.45 0.00 -- 25.3 100.0
02/09/2019 14:00 571.51 0.00 -- 25.1 100.0
02/09/2019 13:00 571.48 0.00 -- 23.9 100.0
02/09/2019 12:00 571.55 0.00 -- 22.2 100.0
02/09/2019 11:00 571.50 0.00 -- 20.3 100.0
02/09/2019 10:00 571.49 0.00 -- 18.9 100.0
02/09/2019 09:00 571.50 0.00 -- 18.2 100.0
02/09/2019 08:00 571.54 0.00 -- 17.6 100.0
02/09/2019 07:00 571.50 0.00 -- 17.7 100.0
02/09/2019 06:00 571.51 0.00 -- 17.7 100.0
02/09/2019 05:00 571.50 0.00 -- 18.1 100.0
02/09/2019 04:00 571.49 0.00 -- 18.7 100.0
02/09/2019 03:00 571.50 0.00 -- 19.9 100.0
02/09/2019 02:00 571.46 0.00 -- 21.4 100.0
02/09/2019 01:00 571.47 0.00 -- 23.3 100.0
02/09/2019 00:00 571.51 0.00 0.00 24.0 100.0
02/08/2019 23:00 571.49 0.00 -- 25.8 100.0
02/08/2019 22:00 571.51 0.00 -- 26.7 100.0
02/08/2019 21:00 571.53 0.00 -- 28.3 100.0
02/08/2019 20:00 571.53 0.00 -- 29.7 100.0
02/08/2019 19:00 571.49 0.01 -- 32.5 100.0
02/08/2019 18:00 571.51 0.00 -- 35.6 100.0
02/08/2019 17:00 571.48 0.00 -- 39.1 100.0
02/08/2019 16:00 571.50 0.00 -- 43.4 88.0
02/08/2019 15:00 571.50 0.00 -- 45.4 72.0
02/08/2019 14:00 571.48 0.06 -- 43.6 83.0
02/08/2019 13:00 571.51 0.10 -- 39.3 100.0
02/08/2019 12:00 571.52 0.04 -- 34.9 100.0
02/08/2019 11:00 571.47 0.04 -- 34.0 100.0
02/08/2019 10:00 571.54 0.06 -- 34.0 100.0
02/08/2019 09:00 571.48 0.04 -- 33.5 100.0
02/08/2019 08:00 571.51 0.03 -- 32.9 100.0
02/08/2019 07:00 571.51 0.00 -- 32.1 100.0
02/08/2019 06:00 571.52 0.00 -- 31.9 100.0
02/08/2019 05:00 571.50 0.02 -- 32.0 100.0
02/08/2019 04:00 571.47 0.05 -- 32.0 100.0
02/08/2019 03:00 571.47 0.05 -- 31.9 100.0
02/08/2019 02:00 571.47 0.03 -- 32.1 100.0
02/08/2019 01:00 571.48 0.01 -- 32.1 100.0
02/08/2019 00:00 571.48 0.01 0.54 32.0 100.0
02/07/2019 23:00 571.47 0.00 -- 32.0 100.0
02/07/2019 22:00 571.47 0.01 -- 32.0 100.0
02/07/2019 21:00 571.46 0.00 -- 32.0 100.0
02/07/2019 20:00 571.47 0.00 -- 31.9 100.0
02/07/2019 19:00 571.48 0.00 -- 32.0 100.0
02/07/2019 18:00 571.48 0.01 -- 32.5 100.0
02/07/2019 17:00 571.49 0.01 -- 32.7 100.0
02/07/2019 16:00 571.49 0.00 -- 32.8 100.0
02/07/2019 15:00 571.46 0.00 -- 33.1 100.0
02/07/2019 14:00 571.49 0.00 -- 33.3 100.0
02/07/2019 13:00 571.46 0.00 -- 33.6 100.0
02/07/2019 12:00 571.48 0.01 -- 32.9 100.0
02/07/2019 11:00 571.49 0.00 -- 32.3 100.0
02/07/2019 10:00 571.44 0.00 -- 31.6 100.0
02/07/2019 09:00 571.46 0.00 -- 30.6 100.0
02/07/2019 08:00 571.49 0.00 -- 30.3 100.0
02/07/2019 07:00 571.47 0.00 -- 29.9 100.0
02/07/2019 06:00 571.47 0.00 -- 29.9 100.0
02/07/2019 05:00 571.48 0.00 -- 29.9 100.0
02/07/2019 04:00 571.48 0.00 -- 29.7 100.0
02/07/2019 03:00 571.49 0.00 -- 29.5 100.0
02/07/2019 02:00 571.47 0.00 -- 29.5 100.0
02/07/2019 01:00 571.48 0.00 -- 29.5 100.0
02/07/2019 00:00 571.45 0.00 0.05 29.3 100.0
02/06/2019 23:00 571.49 0.00 -- 28.8 100.0
02/06/2019 22:00 571.48 0.02 -- 28.1 100.0
02/06/2019 21:00 571.46 0.00 -- 27.9 100.0
02/06/2019 20:00 571.46 0.00 -- 27.7 100.0
02/06/2019 19:00 571.46 0.00 -- 27.9 100.0
02/06/2019 18:00 571.43 0.00 -- 28.4 100.0
02/06/2019 17:00 571.46 0.00 -- 29.3 100.0
02/06/2019 16:00 571.43 0.00 -- 32.7 100.0
02/06/2019 15:00 571.45 0.00 -- 35.6 100.0
02/06/2019 14:00 571.44 0.00 -- 36.2 100.0
02/06/2019 13:00 571.44 0.00 -- 34.8 100.0
02/06/2019 12:00 571.44 0.00 -- 33.4 100.0
02/06/2019 11:00 571.45 0.00 -- 32.6 100.0
02/06/2019 10:00 571.44 0.00 -- 29.9 100.0
02/06/2019 09:00 571.45 0.00 -- 28.1 100.0
02/06/2019 08:00 571.45 0.00 -- 24.6 100.0
02/06/2019 07:00 571.43 0.00 -- 24.1 100.0
02/06/2019 06:00 571.48 0.00 -- 25.5 100.0
02/06/2019 05:00 571.39 0.00 -- 26.6 100.0
02/06/2019 04:00 571.42 0.00 -- 27.5 100.0
02/06/2019 03:00 571.44 0.00 -- 28.7 100.0
02/06/2019 02:00 571.42 0.00 -- 30.3 100.0
02/06/2019 01:00 571.45 0.00 -- 31.0 100.0
02/06/2019 00:00 571.43 0.00 0.02 30.6 100.0
02/05/2019 23:00 571.41 0.00 -- 33.1 91.0
02/05/2019 22:00 571.44 0.00 -- 36.3 81.0
02/05/2019 21:00 571.42 0.00 -- 38.6 71.0
02/05/2019 20:00 571.45 0.00 -- 41.0 48.0
02/05/2019 19:00 571.42 0.00 -- 44.7 37.0
02/05/2019 18:00 571.45 0.00 -- 44.8 36.0
02/05/2019 17:00 571.43 0.00 -- 48.7 34.0
02/05/2019 16:00 571.44 0.00 -- 52.6 32.0
02/05/2019 15:00 571.45 0.00 -- 53.3 32.0
02/05/2019 14:00 571.44 0.00 -- 54.8 29.0
02/05/2019 13:00 571.44 0.00 -- 54.3 31.0
02/05/2019 12:00 571.46 0.00 -- 53.8 31.0
02/05/2019 11:00 571.46 0.00 -- 50.9 36.0
02/05/2019 10:00 571.43 0.00 -- 44.9 40.0
02/05/2019 09:00 571.42 0.00 -- 39.3 45.0
02/05/2019 08:00 571.42 0.00 -- 43.8 44.0
02/05/2019 07:00 571.43 0.00 -- 43.6 46.0
02/05/2019 06:00 571.43 0.00 -- 44.8 49.0
02/05/2019 05:00 571.43 0.00 -- 43.7 55.0
02/05/2019 04:00 571.46 0.00 -- 40.4 63.0
02/05/2019 03:00 571.43 0.00 -- 36.1 64.0
02/05/2019 02:00 571.44 0.00 -- 32.1 63.0
02/05/2019 01:00 571.46 0.00 -- 29.5 62.0
02/05/2019 00:00 571.42 0.00 0.00 30.0 57.0
02/04/2019 23:00 571.45 0.00 -- 30.4 54.0
02/04/2019 22:00 571.44 0.00 -- 31.0 50.0
02/04/2019 21:00 571.43 0.00 -- 32.3 46.0
02/04/2019 20:00 571.45 0.00 -- 33.6 44.0
02/04/2019 19:00 571.43 0.00 -- 34.9 40.0
02/04/2019 18:00 571.44 0.00 -- 37.4 37.0
02/04/2019 17:00 571.43 0.00 -- 42.1 35.0
02/04/2019 16:00 571.46 0.00 -- 50.4 33.0
02/04/2019 15:00 571.44 0.00 -- 53.4 33.0
02/04/2019 14:00 571.44 0.00 -- 51.4 40.0
02/04/2019 13:00 571.45 0.01 -- 49.4 48.0
02/04/2019 12:00 571.46 0.06 -- 47.9 70.0
02/04/2019 11:00 571.47 0.00 -- 44.0 100.0
02/04/2019 10:00 571.45 0.01 -- 37.1 100.0
02/04/2019 09:00 571.44 0.00 -- 34.3 100.0
02/04/2019 08:00 571.45 0.00 -- 31.4 100.0
02/04/2019 07:00 571.43 0.00 -- 30.2 100.0
02/04/2019 06:00 571.44 0.00 -- 30.0 100.0
02/04/2019 05:00 571.45 0.00 -- 29.7 100.0
02/04/2019 04:00 571.45 0.00 -- 30.1 100.0
02/04/2019 03:00 571.45 0.00 -- 29.9 100.0
02/04/2019 02:00 571.50 0.00 -- 29.4 100.0
02/04/2019 01:00 571.43 0.00 -- 29.3 100.0
02/04/2019 00:00 571.44 0.00 0.08 29.1 100.0
02/03/2019 23:00 571.43 0.00 -- 28.8 100.0
02/03/2019 22:00 571.47 0.00 -- 28.9 100.0
02/03/2019 21:00 571.44 0.00 -- 29.0 100.0
02/03/2019 20:00 571.42 0.00 -- 28.9 100.0
02/03/2019 19:00 571.46 0.00 -- 29.1 100.0
02/03/2019 18:00 571.46 0.00 -- 29.4 100.0
02/03/2019 17:00 571.45 0.00 -- 30.2 100.0
02/03/2019 16:00 571.47 0.00 -- 31.1 100.0
02/03/2019 15:00 571.45 0.01 -- 31.4 100.0
02/03/2019 14:00 571.45 0.00 -- 31.4 100.0
02/03/2019 13:00 571.46 0.00 -- 30.5 100.0
02/03/2019 12:00 571.45 0.00 -- 29.0 100.0
02/03/2019 11:00 571.45 0.00 -- 27.7 100.0
02/03/2019 10:00 571.47 0.00 -- 24.8 100.0
02/03/2019 09:00 571.48 0.00 -- 15.4 100.0
02/03/2019 08:00 571.46 0.00 -- 10.9 100.0
02/03/2019 07:00 571.46 0.00 -- 9.6 100.0
02/03/2019 06:00 571.46 0.00 -- 8.7 100.0
02/03/2019 05:00 571.48 0.00 -- 9.6 100.0
02/03/2019 04:00 571.48 0.00 -- 12.2 100.0
02/03/2019 03:00 571.46 0.00 -- 13.9 100.0
02/03/2019 02:00 571.46 0.00 -- 15.6 100.0
02/03/2019 01:00 571.46 0.00 -- 19.3 100.0
02/03/2019 00:00 571.47 0.00 0.01 21.2 100.0
02/02/2019 23:00 571.47 0.00 -- 22.1 100.0
02/02/2019 22:00 571.45 0.00 -- 23.1 100.0
02/02/2019 21:00 571.46 0.00 -- 22.8 100.0
02/02/2019 20:00 571.45 0.00 -- 23.2 100.0
02/02/2019 19:00 571.45 0.00 -- 18.7 100.0
02/02/2019 18:00 571.47 0.00 -- 21.1 100.0
02/02/2019 17:00 571.45 0.00 -- 25.0 100.0
02/02/2019 16:00 571.46 0.00 -- 25.2 100.0
02/02/2019 15:00 571.44 0.00 -- 24.1 100.0
02/02/2019 14:00 571.49 0.00 -- 21.4 100.0
02/02/2019 13:00 571.49 0.00 -- 21.5 100.0
02/02/2019 12:00 571.45 0.00 -- 18.7 100.0
02/02/2019 11:00 571.45 0.00 -- 16.3 100.0
02/02/2019 10:00 571.47 0.00 -- 13.3 100.0
02/02/2019 09:00 571.48 0.00 -- 8.1 100.0
02/02/2019 08:00 571.46 0.00 -- 1.5 100.0
02/02/2019 07:00 571.47 0.00 -- 0.5 100.0
02/02/2019 06:00 571.48 0.00 -- 3.0 100.0
02/02/2019 05:00 571.47 0.00 -- 0.1 100.0
02/02/2019 04:00 571.48 0.00 -- 0.2 100.0
02/02/2019 03:00 571.46 0.00 -- 3.3 100.0
02/02/2019 02:00 571.48 0.00 -- 5.5 100.0
02/02/2019 01:00 571.46 0.00 -- 6.6 100.0
02/02/2019 00:00 571.47 0.00 0.00 6.6 100.0
02/01/2019 23:00 571.46 0.00 -- 5.9 100.0
02/01/2019 22:00 571.47 0.00 -- 6.8 100.0
02/01/2019 21:00 571.46 0.00 -- 10.5 100.0
02/01/2019 20:00 571.47 0.00 -- 10.3 100.0
02/01/2019 19:00 571.48 0.00 -- 11.7 100.0
02/01/2019 18:00 571.47 0.00 -- 12.5 100.0
02/01/2019 17:00 571.47 0.00 -- 14.2 100.0
02/01/2019 16:00 571.47 0.00 -- 15.5 100.0
02/01/2019 15:00 571.50 0.00 -- 15.5 100.0
02/01/2019 14:00 571.50 0.00 -- 14.9 100.0
02/01/2019 13:00 571.47 0.00 -- 14.1 100.0
02/01/2019 12:00 571.52 0.00 -- 13.2 100.0
02/01/2019 11:00 571.48 0.00 -- 10.2 100.0
02/01/2019 10:00 571.48 0.00 -- 7.2 100.0
02/01/2019 09:00 571.51 0.00 -- 6.2 100.0
02/01/2019 08:00 571.48 0.00 -- 3.1 100.0
02/01/2019 07:00 571.47 0.00 -- -0.7 100.0
02/01/2019 06:00 571.48 0.00 -- 2.7 100.0
02/01/2019 05:00 571.49 0.00 -- 0.5 100.0
02/01/2019 04:00 571.48 0.00 -- -0.9 100.0
02/01/2019 03:00 571.47 0.00 -- 2.2 100.0
02/01/2019 02:00 571.50 0.00 -- 4.5 100.0
02/01/2019 01:00 571.49 0.00 -- 4.1 100.0
02/01/2019 00:00 571.48 0.00 0.00 3.5 100.0
01/31/2019 23:00 571.48 0.00 -- 5.0 100.0
01/31/2019 22:00 571.49 0.00 -- 5.4 100.0
01/31/2019 21:00 571.50 0.00 -- 6.1 100.0
01/31/2019 20:00 571.49 0.00 -- 1.8 100.0
01/31/2019 19:00 571.49 0.00 -- 5.6 100.0
01/31/2019 18:00 571.50 0.00 -- 7.7 100.0
01/31/2019 17:00 571.50 0.00 -- 8.7 100.0
01/31/2019 16:00 571.48 0.00 -- 10.4 100.0
01/31/2019 15:00 571.52 0.00 -- 10.8 100.0
01/31/2019 14:00 571.50 0.00 -- 9.7 100.0
01/31/2019 13:00 571.53 0.00 -- 9.0 100.0
01/31/2019 12:00 571.48 0.00 -- 7.1 100.0
01/31/2019 11:00 571.50 0.00 -- 4.6 100.0
01/31/2019 10:00 571.49 0.00 -- 1.6 100.0
01/31/2019 09:00 571.49 0.00 -- -0.6 100.0
01/31/2019 08:00 571.51 0.00 -- -3.6 100.0
01/31/2019 07:00 571.48 0.00 -- -3.8 100.0
01/31/2019 06:00 571.50 0.00 -- -3.2 100.0
01/31/2019 05:00 571.49 0.00 -- -2.0 100.0
01/31/2019 04:00 571.49 0.00 -- -1.1 100.0
01/31/2019 03:00 571.49 0.00 -- -0.7 100.0
01/31/2019 02:00 571.48 0.00 -- 1.0 100.0
01/31/2019 01:00 571.47 0.00 -- 2.5 100.0
01/31/2019 00:00 571.49 0.00 0.00 4.1 100.0
01/30/2019 23:00 571.49 0.00 -- 6.0 100.0
01/30/2019 22:00 571.49 0.00 -- 7.5 100.0
01/30/2019 21:00 571.49 0.00 -- 11.7 100.0
01/30/2019 20:00 571.46 0.00 -- 17.0 100.0
01/30/2019 19:00 571.48 0.00 -- 22.8 100.0
01/30/2019 18:00 571.47 0.00 -- 16.9 100.0
01/30/2019 17:00 571.48 0.00 -- 19.2 100.0
01/30/2019 16:00 571.48 0.00 -- 21.0 100.0
01/30/2019 15:00 571.48 0.00 -- 21.8 100.0
01/30/2019 14:00 571.47 0.00 -- 22.0 100.0
01/30/2019 13:00 571.49 0.00 -- 23.0 100.0
01/30/2019 12:00 571.48 0.00 -- 23.4 100.0
01/30/2019 11:00 571.48 0.00 -- 24.1 100.0
01/30/2019 10:00 571.50 0.00 -- 23.9 100.0
01/30/2019 09:00 571.49 0.00 -- 20.7 100.0
01/30/2019 08:00 571.50 0.00 -- 18.8 100.0
01/30/2019 07:00 571.51 0.00 -- 18.2 100.0
01/30/2019 06:00 571.52 0.00 -- 17.4 100.0
01/30/2019 05:00 571.51 0.00 -- 16.5 100.0
01/30/2019 04:00 571.49 0.00 -- 15.4 100.0
01/30/2019 03:00 571.47 0.00 -- 14.4 100.0
01/30/2019 02:00 571.47 0.00 -- 13.9 100.0
01/30/2019 01:00 571.46 0.00 -- 13.8 100.0
01/30/2019 00:00 571.45 0.00 0.00 13.3 100.0
01/29/2019 23:00 571.45 0.00 -- 12.3 100.0
01/29/2019 22:00 571.45 0.00 -- 11.7 100.0
01/29/2019 21:00 571.44 0.00 -- 11.9 100.0
01/29/2019 20:00 571.43 0.00 -- 11.6 100.0
01/29/2019 19:00 571.44 0.00 -- 12.3 100.0
01/29/2019 18:00 571.43 0.00 -- 13.2 100.0
01/29/2019 17:00 571.46 0.00 -- 13.2 100.0
01/29/2019 16:00 571.45 0.00 -- 13.9 100.0
01/29/2019 15:00 571.44 0.00 -- 14.5 100.0
01/29/2019 14:00 571.45 0.00 -- 13.7 100.0
01/29/2019 13:00 571.41 0.00 -- 13.2 100.0
01/29/2019 12:00 571.44 0.00 -- 12.1 100.0
01/29/2019 11:00 571.44 0.00 -- 9.9 100.0
01/29/2019 10:00 571.44 0.00 -- 7.5 100.0
01/29/2019 09:00 571.44 0.00 -- 5.3 100.0
01/29/2019 08:00 571.47 0.00 -- 3.5 100.0
01/29/2019 07:00 571.45 0.00 -- 1.8 100.0
01/29/2019 06:00 571.39 0.00 -- 2.8 100.0
01/29/2019 05:00 571.41 0.00 -- 3.6 100.0
01/29/2019 04:00 571.38 0.00 -- 4.6 100.0
01/29/2019 03:00 571.43 0.00 -- 5.5 100.0
01/29/2019 02:00 571.47 0.00 -- 6.5 100.0
01/29/2019 01:00 571.50 0.00 -- 8.3 100.0
01/29/2019 00:00 571.39 0.00 0.00 9.6 100.0
01/28/2019 23:00 571.49 0.00 -- 10.5 100.0
01/28/2019 22:00 571.43 0.00 -- 11.5 100.0
01/28/2019 21:00 571.45 0.00 -- 13.6 100.0
01/28/2019 20:00 571.43 0.00 -- 15.3 100.0
01/28/2019 19:00 571.45 0.00 -- 14.5 100.0
01/28/2019 18:00 571.43 0.00 -- 16.8 100.0
01/28/2019 17:00 571.45 0.00 -- 19.4 100.0
01/28/2019 16:00 571.43 0.00 -- 21.1 100.0
01/28/2019 15:00 571.44 0.00 -- 21.7 100.0
01/28/2019 14:00 571.44 0.00 -- 21.4 100.0
01/28/2019 13:00 571.43 0.00 -- 21.2 100.0
01/28/2019 12:00 571.43 0.00 -- 20.5 100.0
01/28/2019 11:00 571.43 0.00 -- 19.9 100.0
01/28/2019 10:00 571.44 0.00 -- 18.3 100.0
01/28/2019 09:00 571.45 0.00 -- 17.5 100.0
01/28/2019 08:00 571.43 0.00 -- 16.6 100.0
01/28/2019 07:00 571.42 0.00 -- 17.3 100.0
01/28/2019 06:00 571.43 0.00 -- 18.8 100.0
01/28/2019 05:00 571.43 0.00 -- 20.3 100.0
01/28/2019 04:00 571.43 0.00 -- 22.1 100.0
01/28/2019 03:00 571.42 0.00 -- 24.4 100.0
01/28/2019 02:00 571.42 0.00 -- 26.4 100.0
01/28/2019 01:00 571.42 0.00 -- 28.5 77.0
01/28/2019 00:00 571.43 0.00 0.00 30.2 73.0
01/27/2019 23:00 571.43 0.00 -- 31.6 76.0
01/27/2019 22:00 571.43 0.00 -- 33.5 80.0
01/27/2019 21:00 571.44 0.00 -- 33.5 82.0
01/27/2019 20:00 571.41 0.00 -- 33.5 82.0
01/27/2019 19:00 571.40 0.00 -- 34.5 87.0
01/27/2019 18:00 571.43 0.00 -- 34.0 92.0
01/27/2019 17:00 571.38 0.00 -- 34.4 95.0
01/27/2019 16:00 571.44 0.00 -- 35.6 99.0
01/27/2019 15:00 571.44 0.00 -- 36.2 100.0
01/27/2019 14:00 571.41 0.00 -- 34.9 100.0
01/27/2019 13:00 571.41 0.00 -- 34.1 100.0
01/27/2019 12:00 571.42 0.00 -- 24.9 100.0
01/27/2019 11:00 571.41 0.00 -- 21.5 100.0
01/27/2019 10:00 571.40 0.00 -- 17.0 100.0
01/27/2019 09:00 571.42 0.00 -- 13.4 100.0
01/27/2019 08:00 571.42 0.00 -- 10.7 100.0
01/27/2019 07:00 571.42 0.00 -- 8.3 100.0
01/27/2019 06:00 571.42 0.00 -- 7.8 100.0
01/27/2019 05:00 571.40 0.00 -- 7.5 100.0
01/27/2019 04:00 571.42 0.00 -- 7.9 100.0
01/27/2019 03:00 571.41 0.00 -- 8.3 100.0
01/27/2019 02:00 571.42 0.00 -- 9.1 100.0
01/27/2019 01:00 571.41 0.00 -- 10.5 100.0
01/27/2019 00:00 571.40 0.00 0.00 11.0 100.0
01/26/2019 23:00 571.42 0.00 -- 12.1 100.0
01/26/2019 22:00 571.41 0.00 -- 14.1 100.0
01/26/2019 21:00 571.41 0.00 -- 15.1 100.0
01/26/2019 20:00 571.39 0.00 -- 15.9 100.0
01/26/2019 19:00 571.41 0.00 -- 17.3 100.0
01/26/2019 18:00 571.40 0.00 -- 19.6 100.0
01/26/2019 17:00 571.41 0.00 -- 22.7 100.0
01/26/2019 16:00 571.39 0.00 -- 24.5 100.0
01/26/2019 15:00 571.40 0.00 -- 24.1 100.0
01/26/2019 14:00 571.40 0.00 -- 23.1 100.0
01/26/2019 13:00 571.38 0.00 -- 22.9 100.0
01/26/2019 12:00 571.39 0.00 -- 22.5 100.0
01/26/2019 11:00 571.38 0.00 -- 21.3 100.0
01/26/2019 10:00 571.40 0.00 -- 19.7 100.0
01/26/2019 09:00 571.38 0.00 -- 17.7 100.0
01/26/2019 08:00 571.39 0.00 -- 16.1 100.0
01/26/2019 07:00 571.38 0.00 -- 15.8 100.0
01/26/2019 06:00 571.38 0.00 -- 16.0 100.0
01/26/2019 05:00 571.38 0.00 -- 17.1 100.0
01/26/2019 04:00 571.37 0.00 -- 16.9 100.0
01/26/2019 03:00 571.37 0.00 -- 17.4 100.0
01/26/2019 02:00 571.36 0.00 -- 18.5 100.0
01/26/2019 01:00 571.38 0.00 -- 20.2 100.0
01/26/2019 00:00 571.36 0.00 0.00 21.8 100.0
01/25/2019 23:00 571.36 0.00 -- 22.7 100.0
01/25/2019 22:00 571.35 0.00 -- 23.7 100.0
01/25/2019 21:00 571.36 0.00 -- 25.1 100.0
01/25/2019 20:00 571.36 0.00 -- 26.0 100.0
01/25/2019 19:00 571.33 0.00 -- 27.0 100.0
01/25/2019 18:00 571.34 0.00 -- 28.3 100.0
01/25/2019 17:00 571.34 0.00 -- 30.2 100.0
01/25/2019 16:00 571.30 0.00 -- 32.0 100.0
01/25/2019 15:00 571.34 0.00 -- 33.0 100.0
01/25/2019 14:00 571.31 0.00 -- 32.9 100.0
01/25/2019 13:00 571.34 0.00 -- 32.6 100.0
01/25/2019 12:00 571.30 0.00 -- 32.5 100.0
01/25/2019 11:00 571.29 0.00 -- 32.6 100.0
01/25/2019 10:00 571.31 0.00 -- 31.8 100.0
01/25/2019 09:00 571.30 0.00 -- 30.8 100.0
01/25/2019 08:00 571.31 0.00 -- 29.7 100.0
01/25/2019 07:00 571.29 0.00 -- 29.7 100.0
01/25/2019 06:00 571.30 0.00 -- 30.5 100.0
01/25/2019 05:00 571.30 0.00 -- 31.0 100.0
01/25/2019 04:00 571.28 0.00 -- 31.5 100.0
01/25/2019 03:00 571.27 0.00 -- 32.5 77.0
01/25/2019 02:00 571.26 0.00 -- 33.4 48.0
01/25/2019 01:00 571.26 0.00 -- 34.1 43.0
01/25/2019 00:00 571.25 0.00 0.00 35.1 38.0
01/24/2019 23:00 571.21 0.00 -- 35.8 35.0
01/24/2019 22:00 571.22 0.00 -- 37.0 33.0
01/24/2019 21:00 571.24 0.00 -- 39.1 31.0
01/24/2019 20:00 571.24 0.00 -- 40.9 30.0
01/24/2019 19:00 571.18 0.04 -- 43.7 30.0
01/24/2019 18:00 571.18 0.03 -- 45.7 29.0
01/24/2019 17:00 571.20 0.36 -- 48.3 28.0
01/24/2019 16:00 571.13 0.25 -- 50.5 29.0
01/24/2019 15:00 571.10 0.18 -- 48.7 30.0
01/24/2019 14:00 571.12 0.14 -- 49.6 30.0
01/24/2019 13:00 571.09 0.09 -- 51.1 30.0
01/24/2019 12:00 571.06 0.11 -- 50.0 32.0
01/24/2019 11:00 571.03 0.09 -- 47.1 34.0
01/24/2019 10:00 571.03 0.15 -- 45.4 40.0
01/24/2019 09:00 571.01 0.06 -- 43.1 47.0
01/24/2019 08:00 571.03 0.04 -- 40.3 52.0
01/24/2019 07:00 570.99 0.02 -- 39.5 59.0
01/24/2019 06:00 571.01 0.00 -- 38.7 60.0
01/24/2019 05:00 571.00 0.02 -- 37.0 70.0
01/24/2019 04:00 571.00 0.00 -- 36.7 74.0
01/24/2019 03:00 570.99 0.00 -- 34.9 74.0
01/24/2019 02:00 570.98 0.00 -- 36.5 76.0
01/24/2019 01:00 570.98 0.00 -- 36.6 87.0
01/24/2019 00:00 570.98 0.00 1.58 33.8 91.0
01/23/2019 23:00 570.99 0.00 -- 36.1 98.0
01/23/2019 22:00 570.98 0.01 -- 37.3 100.0
01/23/2019 21:00 570.98 0.00 -- 34.9 100.0
01/23/2019 20:00 570.98 0.00 -- 35.0 100.0
01/23/2019 19:00 571.00 0.00 -- 29.4 100.0
01/23/2019 18:00 571.00 0.00 -- 29.5 100.0
01/23/2019 17:00 570.99 0.00 -- 30.2 100.0
01/23/2019 16:00 571.00 0.00 -- 31.2 100.0
01/23/2019 15:00 570.99 0.00 -- 31.3 100.0
01/23/2019 14:00 570.97 0.00 -- 30.0 100.0
01/23/2019 13:00 571.01 0.00 -- 27.5 100.0
01/23/2019 12:00 570.99 0.00 -- 25.7 100.0
01/23/2019 11:00 570.98 0.00 -- 22.5 100.0
01/23/2019 10:00 571.02 0.00 -- 19.8 100.0
01/23/2019 09:00 570.99 0.00 -- 17.4 100.0
01/23/2019 08:00 570.97 0.00 -- 16.4 100.0
01/23/2019 07:00 571.01 0.00 -- 15.3 100.0
01/23/2019 06:00 570.99 0.00 -- 9.2 100.0
01/23/2019 05:00 -- -- -- 9.7 100.0
01/23/2019 04:00 -- -- -- 9.3 100.0
01/23/2019 03:00 -- -- -- 9.6 100.0
01/23/2019 02:00 -- -- -- 11.7 100.0
01/23/2019 01:00 -- -- -- 12.7 100.0
01/23/2019 00:00 -- -- 0.01 13.3 100.0